Observation data for Junction on 11/16/2019      Previous  Date       Current Mesonet Observations  Soil Data  Daily Summary Page  Observations in Plain Language
KJU1 160600Z 00000KT M01/M02 A3028 RMK A01 T10121016  RH  097%=      5-min Rain = 0
KJU1 160601Z 00000KT M01/M02 A3028 RMK A01 T10131017  RH  097%=      5-min Rain = 0
KJU1 160602Z 00000KT M01/M02 A3028 RMK A01 T10141018  RH  097%=      5-min Rain = 0
KJU1 160603Z 00000KT M01/M02 A3028 RMK A01 T10141018  RH  097%=      5-min Rain = 0
KJU1 160604Z 00000KT M01/M02 A3028 RMK A01 T10131017  RH  097%=      5-min Rain = 0
KJU1 160605Z 20000KT M01/M02 A3028 RMK A01 T10131017  RH  097%=      5-min Rain = 0
KJU1 160606Z 20000KT M01/M02 A3028 RMK A01 T10131017  RH  097%=      5-min Rain = 0
KJU1 160607Z 16001KT M01/M02 A3028 RMK A01 T10131017  RH  097%=      5-min Rain = 0
KJU1 160608Z 16000KT M01/M02 A3028 RMK A01 T10131017  RH  097%=      5-min Rain = 0
KJU1 160609Z 16001KT M01/M02 A3028 RMK A01 T10141017  RH  097%=      5-min Rain = 0
KJU1 160610Z 16001KT M01/M02 A3028 RMK A01 T10141018  RH  097%=      5-min Rain = 0
KJU1 160611Z 16000KT M01/M02 A3028 RMK A01 T10141018  RH  097%=      5-min Rain = 0
KJU1 160612Z 00000KT M02/M02 A3028 RMK A01 T10151019  RH  097%=      5-min Rain = 0
KJU1 160613Z 00000KT M02/M02 A3028 RMK A01 T10151020  RH  097%=      5-min Rain = 0
KJU1 160614Z 00000KT M02/M02 A3028 RMK A01 T10161020  RH  097%=      5-min Rain = 0
KJU1 160615Z 17000KT M02/M02 A3028 RMK A01 T10161020  RH  097%=      5-min Rain = 0
KJU1 160616Z 17001KT M02/M02 A3028 RMK A01 T10151019  RH  097%=      5-min Rain = 0
KJU1 160617Z 17000KT M01/M02 A3028 RMK A01 T10141018  RH  097%=      5-min Rain = 0
KJU1 160618Z 17001KT M01/M02 A3028 RMK A01 T10131017  RH  098%=      5-min Rain = 0
KJU1 160619Z 17001KT M01/M02 A3028 RMK A01 T10121015  RH  098%=      5-min Rain = 0
KJU1 160620Z 17001KT M01/M02 A3028 RMK A01 T10141018  RH  097%=      5-min Rain = 0
KJU1 160621Z 17001KT M02/M02 A3028 RMK A01 T10161020  RH  097%=      5-min Rain = 0
KJU1 160622Z 18001KT M02/M02 A3027 RMK A01 T10171021  RH  097%=      5-min Rain = 0
KJU1 160623Z 19001KT M02/M02 A3027 RMK A01 T10181022  RH  097%=      5-min Rain = 0
KJU1 160624Z 19001KT M02/M02 A3027 RMK A01 T10171021  RH  097%=      5-min Rain = 0
KJU1 160625Z 19001KT M02/M02 A3027 RMK A01 T10161020  RH  097%=      5-min Rain = 0
KJU1 160626Z 19000KT M02/M02 A3027 RMK A01 T10161020  RH  097%=      5-min Rain = 0
KJU1 160627Z 00000KT M02/M02 A3027 RMK A01 T10171021  RH  097%=      5-min Rain = 0
KJU1 160628Z 00000KT M02/M02 A3027 RMK A01 T10171021  RH  097%=      5-min Rain = 0
KJU1 160629Z 00000KT M02/M02 A3028 RMK A01 T10171020  RH  097%=      5-min Rain = 0
KJU1 160630Z 00000KT M02/M02 A3027 RMK A01 T10161019  RH  097%=      5-min Rain = 0
KJU1 160631Z 00000KT M02/M02 A3027 RMK A01 T10151018  RH  098%=      5-min Rain = 0
KJU1 160632Z 00000KT M01/M02 A3027 RMK A01 T10141018  RH  098%=      5-min Rain = 0
KJU1 160633Z 00000KT M02/M02 A3028 RMK A01 T10151018  RH  097%=      5-min Rain = 0
KJU1 160634Z 00000KT M02/M02 A3028 RMK A01 T10161019  RH  097%=      5-min Rain = 0
KJU1 160635Z 00000KT M02/M02 A3028 RMK A01 T10171020  RH  097%=      5-min Rain = 0
KJU1 160636Z 00000KT M02/M02 A3028 RMK A01 T10181022  RH  097%=      5-min Rain = 0
KJU1 160637Z 00000KT M02/M02 A3028 RMK A01 T10191023  RH  097%=      5-min Rain = 0
KJU1 160638Z 00000KT M02/M02 A3028 RMK A01 T10191024  RH  097%=      5-min Rain = 0
KJU1 160639Z 00000KT M02/M02 A3028 RMK A01 T10181022  RH  097%=      5-min Rain = 0
KJU1 160640Z 00000KT M02/M02 A3028 RMK A01 T10171020  RH  098%=      5-min Rain = 0
KJU1 160641Z 00000KT M02/M02 A3028 RMK A01 T10161019  RH  098%=      5-min Rain = 0
KJU1 160642Z 00000KT M02/M02 A3027 RMK A01 T10161020  RH  097%=      5-min Rain = 0
KJU1 160643Z 00000KT M02/M02 A3027 RMK A01 T10161020  RH  097%=      5-min Rain = 0
KJU1 160644Z 00000KT M02/M02 A3027 RMK A01 T10171021  RH  097%=      5-min Rain = 0
KJU1 160645Z 00000KT M02/M02 A3027 RMK A01 T10181022  RH  097%=      5-min Rain = 0
KJU1 160646Z 00000KT M02/M02 A3027 RMK A01 T10191023  RH  097%=      5-min Rain = 0
KJU1 160647Z 00000KT M02/M02 A3027 RMK A01 T10201024  RH  097%=      5-min Rain = 0
KJU1 160648Z 00000KT M02/M02 A3027 RMK A01 T10201024  RH  097%=      5-min Rain = 0
KJU1 160649Z 00000KT M02/M02 A3027 RMK A01 T10191023  RH  097%=      5-min Rain = 0
KJU1 160650Z 00000KT M02/M02 A3027 RMK A01 T10191023  RH  097%=      5-min Rain = 0
KJU1 160651Z 00000KT M02/M02 A3027 RMK A01 T10191023  RH  097%=      5-min Rain = 0
KJU1 160652Z 00000KT M02/M02 A3027 RMK A01 T10201024  RH  097%=      5-min Rain = 0
KJU1 160653Z 00000KT M02/M03 A3027 RMK A01 T10211025  RH  097%=      5-min Rain = 0
KJU1 160654Z 00000KT M02/M03 A3027 RMK A01 T10211026  RH  097%=      5-min Rain = 0
KJU1 160655Z 00000KT M02/M03 A3027 RMK A01 T10211025  RH  097%=      5-min Rain = 0
KJU1 160656Z 00000KT M02/M03 A3027 RMK A01 T10211026  RH  097%=      5-min Rain = 0
KJU1 160657Z 00000KT M02/M03 A3027 RMK A01 T10231028  RH  097%=      5-min Rain = 0
KJU1 160658Z 00000KT M02/M03 A3027 RMK A01 T10241028  RH  097%=      5-min Rain = 0
KJU1 160659Z 00000KT M02/M03 A3027 RMK A01 T10241028  RH  097%=      5-min Rain = 0
KJU1 160700Z 19000KT M02/M03 A3027 RMK A01 T10241028  RH  097%=      5-min Rain = 0
KJU1 160701Z 19001KT M02/M03 A3027 RMK A01 T10241029  RH  097%=      5-min Rain = 0
KJU1 160702Z 19001KT M02/M03 A3027 RMK A01 T10241029  RH  097%=      5-min Rain = 0
KJU1 160703Z 19001KT M02/M03 A3027 RMK A01 T10231027  RH  097%=      5-min Rain = 0
KJU1 160704Z 19001KT M02/M03 A3027 RMK A01 T10211025  RH  097%=      5-min Rain = 0
KJU1 160705Z 19001KT M02/M03 A3026 RMK A01 T10211025  RH  098%=      5-min Rain = 0
KJU1 160706Z 19001KT M02/M03 A3026 RMK A01 T10211025  RH  097%=      5-min Rain = 0
KJU1 160707Z 18001KT M02/M03 A3026 RMK A01 T10211025  RH  097%=      5-min Rain = 0
KJU1 160708Z 18001KT M02/M03 A3026 RMK A01 T10231027  RH  097%=      5-min Rain = 0
KJU1 160709Z 18001KT M02/M03 A3027 RMK A01 T10241028  RH  097%=      5-min Rain = 0
KJU1 160710Z 18001KT M02/M03 A3027 RMK A01 T10241029  RH  097%=      5-min Rain = 0
KJU1 160711Z 18001KT M03/M03 A3027 RMK A01 T10251029  RH  097%=      5-min Rain = 0
KJU1 160712Z 18001KT M03/M03 A3026 RMK A01 T10251029  RH  097%=      5-min Rain = 0
KJU1 160713Z 19001KT M03/M03 A3026 RMK A01 T10251029  RH  097%=      5-min Rain = 0
KJU1 160714Z 19000KT M03/M03 A3026 RMK A01 T10251029  RH  097%=      5-min Rain = 0
KJU1 160715Z 00000KT M03/M03 A3026 RMK A01 T10251029  RH  097%=      5-min Rain = 0
KJU1 160716Z 00000KT M03/M03 A3026 RMK A01 T10251029  RH  097%=      5-min Rain = 0
KJU1 160717Z 00000KT M03/M03 A3026 RMK A01 T10251029  RH  097%=      5-min Rain = 0
KJU1 160718Z 00000KT M02/M03 A3026 RMK A01 T10241028  RH  097%=      5-min Rain = 0
KJU1 160719Z 00000KT M02/M03 A3026 RMK A01 T10241028  RH  097%=      5-min Rain = 0
KJU1 160720Z 00000KT M02/M03 A3026 RMK A01 T10241028  RH  097%=      5-min Rain = 0
KJU1 160721Z 00000KT M02/M03 A3026 RMK A01 T10241028  RH  097%=      5-min Rain = 0
KJU1 160722Z 00000KT M03/M03 A3026 RMK A01 T10251029  RH  097%=      5-min Rain = 0
KJU1 160723Z 22001KT M03/M03 A3026 RMK A01 T10251029  RH  097%=      5-min Rain = 0
KJU1 160724Z 22000KT M03/M03 A3026 RMK A01 T10251029  RH  097%=      5-min Rain = 0
KJU1 160725Z 22000KT M03/M03 A3026 RMK A01 T10251029  RH  097%=      5-min Rain = 0
KJU1 160726Z 22000KT M03/M03 A3026 RMK A01 T10261030  RH  097%=      5-min Rain = 0
KJU1 160727Z 22001KT M03/M03 A3026 RMK A01 T10261030  RH  097%=      5-min Rain = 0
KJU1 160728Z 22000KT M03/M03 A3026 RMK A01 T10261030  RH  097%=      5-min Rain = 0
KJU1 160729Z 22000KT M03/M03 A3026 RMK A01 T10261030  RH  097%=      5-min Rain = 0
KJU1 160730Z 00000KT M03/M03 A3026 RMK A01 T10261030  RH  097%=      5-min Rain = 0
KJU1 160731Z 00000KT M03/M03 A3026 RMK A01 T10261030  RH  097%=      5-min Rain = 0
KJU1 160732Z 00000KT M03/M03 A3026 RMK A01 T10261030  RH  097%=      5-min Rain = 0
KJU1 160733Z 00000KT M03/M03 A3026 RMK A01 T10261030  RH  097%=      5-min Rain = 0
KJU1 160734Z 00000KT M03/M03 A3026 RMK A01 T10261030  RH  097%=      5-min Rain = 0
KJU1 160735Z 00000KT M02/M03 A3026 RMK A01 T10241028  RH  098%=      5-min Rain = 0
KJU1 160736Z 00000KT M02/M03 A3026 RMK A01 T10231026  RH  098%=      5-min Rain = 0
KJU1 160737Z 20000KT M02/M03 A3026 RMK A01 T10231026  RH  098%=      5-min Rain = 0
KJU1 160738Z 20001KT M02/M03 A3026 RMK A01 T10231026  RH  098%=      5-min Rain = 0
KJU1 160739Z 20001KT M02/M03 A3026 RMK A01 T10231026  RH  098%=      5-min Rain = 0
KJU1 160740Z 20001KT M02/M03 A3026 RMK A01 T10231026  RH  098%=      5-min Rain = 0
KJU1 160741Z 20002KT M02/M02 A3026 RMK A01 T10211024  RH  098%=      5-min Rain = 0
KJU1 160742Z 20002KT M02/M02 A3026 RMK A01 T10191021  RH  098%=      5-min Rain = 0
KJU1 160743Z 20002KT M02/M02 A3025 RMK A01 T10171019  RH  098%=      5-min Rain = 0
KJU1 160744Z 19002KT M02/M02 A3025 RMK A01 T10161019  RH  098%=      5-min Rain = 0
KJU1 160745Z 19002KT M02/M02 A3025 RMK A01 T10181021  RH  098%=      5-min Rain = 0
KJU1 160746Z 19002KT M02/M03 A3025 RMK A01 T10211025  RH  098%=      5-min Rain = 0
KJU1 160747Z 19002KT M02/M03 A3025 RMK A01 T10241028  RH  097%=      5-min Rain = 0
KJU1 160748Z 19002KT M03/M03 A3025 RMK A01 T10261030  RH  097%=      5-min Rain = 0
KJU1 160749Z 19002KT M03/M03 A3025 RMK A01 T10261030  RH  097%=      5-min Rain = 0
KJU1 160750Z 19002KT M03/M03 A3025 RMK A01 T10251028  RH  098%=      5-min Rain = 0
KJU1 160751Z 19001KT M02/M03 A3025 RMK A01 T10221025  RH  098%=      5-min Rain = 0
KJU1 160752Z 19001KT M02/M02 A3025 RMK A01 T10211024  RH  098%=      5-min Rain = 0
KJU1 160753Z 19001KT M02/M02 A3025 RMK A01 T10201022  RH  098%=      5-min Rain = 0
KJU1 160754Z 19001KT M02/M02 A3025 RMK A01 T10201023  RH  098%=      5-min Rain = 0
KJU1 160755Z 19001KT M02/M02 A3025 RMK A01 T10211024  RH  098%=      5-min Rain = 0
KJU1 160756Z 19001KT M02/M02 A3025 RMK A01 T10211024  RH  098%=      5-min Rain = 0
KJU1 160757Z 19002KT M02/M02 A3025 RMK A01 T10201023  RH  098%=      5-min Rain = 0
KJU1 160758Z 19002KT M02/M02 A3025 RMK A01 T10201023  RH  098%=      5-min Rain = 0
KJU1 160759Z 19002KT M02/M03 A3025 RMK A01 T10221025  RH  098%=      5-min Rain = 0
KJU1 160800Z 19002KT M02/M03 A3025 RMK A01 T10241027  RH  098%=      5-min Rain = 0
KJU1 160801Z 19002KT M03/M03 A3025 RMK A01 T10251029  RH  097%=      5-min Rain = 0
KJU1 160802Z 19002KT M03/M03 A3025 RMK A01 T10261030  RH  098%=      5-min Rain = 0
KJU1 160803Z 19002KT M03/M03 A3025 RMK A01 T10261030  RH  098%=      5-min Rain = 0
KJU1 160804Z 19002KT M03/M03 A3025 RMK A01 T10261030  RH  098%=      5-min Rain = 0
KJU1 160805Z 19001KT M03/M03 A3025 RMK A01 T10271031  RH  098%=      5-min Rain = 0
KJU1 160806Z 18001KT M03/M03 A3025 RMK A01 T10281031  RH  098%=      5-min Rain = 0
KJU1 160807Z 18001KT M03/M03 A3025 RMK A01 T10281031  RH  098%=      5-min Rain = 0
KJU1 160808Z 18001KT M03/M03 A3025 RMK A01 T10281031  RH  098%=      5-min Rain = 0
KJU1 160809Z 18000KT M03/M03 A3025 RMK A01 T10281031  RH  098%=      5-min Rain = 0
KJU1 160810Z 00000KT M03/M03 A3024 RMK A01 T10281031  RH  098%=      5-min Rain = 0
KJU1 160811Z 00000KT M03/M03 A3024 RMK A01 T10271030  RH  098%=      5-min Rain = 0
KJU1 160812Z 00000KT M03/M03 A3024 RMK A01 T10261029  RH  098%=      5-min Rain = 0
KJU1 160813Z 00000KT M03/M03 A3024 RMK A01 T10251028  RH  098%=      5-min Rain = 0
KJU1 160814Z 00000KT M02/M03 A3024 RMK A01 T10231026  RH  098%=      5-min Rain = 0
KJU1 160815Z 00000KT M02/M03 A3024 RMK A01 T10231025  RH  098%=      5-min Rain = 0
KJU1 160816Z 26000KT M02/M03 A3024 RMK A01 T10221025  RH  098%=      5-min Rain = 0
KJU1 160817Z 26000KT M02/M03 A3024 RMK A01 T10221025  RH  098%=      5-min Rain = 0
KJU1 160818Z 00000KT M02/M02 A3024 RMK A01 T10221024  RH  098%=      5-min Rain = 0
KJU1 160819Z 00000KT M02/M02 A3024 RMK A01 T10221024  RH  098%=      5-min Rain = 0
KJU1 160820Z 00000KT M02/M03 A3024 RMK A01 T10221025  RH  098%=      5-min Rain = 0
KJU1 160821Z 00000KT M02/M03 A3024 RMK A01 T10241027  RH  098%=      5-min Rain = 0
KJU1 160822Z 00000KT M03/M03 A3024 RMK A01 T10251028  RH  098%=      5-min Rain = 0
KJU1 160823Z 00000KT M03/M03 A3024 RMK A01 T10251028  RH  098%=      5-min Rain = 0
KJU1 160824Z 00000KT M03/M03 A3024 RMK A01 T10261029  RH  098%=      5-min Rain = 0
KJU1 160825Z 00000KT M03/M03 A3024 RMK A01 T10261029  RH  098%=      5-min Rain = 0
KJU1 160826Z 00000KT M03/M03 A3024 RMK A01 T10261029  RH  098%=      5-min Rain = 0
KJU1 160827Z 00000KT M03/M03 A3024 RMK A01 T10261029  RH  098%=      5-min Rain = 0
KJU1 160828Z 00000KT M03/M03 A3024 RMK A01 T10261029  RH  098%=      5-min Rain = 0
KJU1 160829Z 00000KT M03/M03 A3024 RMK A01 T10271031  RH  098%=      5-min Rain = 0
KJU1 160830Z 00000KT M03/M03 A3024 RMK A01 T10281032  RH  098%=      5-min Rain = 0
KJU1 160831Z 00000KT M03/M03 A3024 RMK A01 T10281031  RH  098%=      5-min Rain = 0
KJU1 160832Z 00000KT M03/M03 A3024 RMK A01 T10271030  RH  098%=      5-min Rain = 0
KJU1 160833Z 00000KT M03/M03 A3024 RMK A01 T10261029  RH  098%=      5-min Rain = 0
KJU1 160834Z 00000KT M03/M03 A3024 RMK A01 T10261029  RH  098%=      5-min Rain = 0
KJU1 160835Z 00000KT M03/M03 A3024 RMK A01 T10261029  RH  098%=      5-min Rain = 0
KJU1 160836Z 00000KT M03/M03 A3024 RMK A01 T10261028  RH  098%=      5-min Rain = 0
KJU1 160837Z 00000KT M03/M03 A3024 RMK A01 T10261029  RH  098%=      5-min Rain = 0
KJU1 160838Z 00000KT M03/M03 A3024 RMK A01 T10261029  RH  098%=      5-min Rain = 0
KJU1 160839Z 00000KT M03/M03 A3024 RMK A01 T10281031  RH  098%=      5-min Rain = 0
KJU1 160840Z 00000KT M03/M03 A3024 RMK A01 T10281032  RH  098%=      5-min Rain = 0
KJU1 160841Z 00000KT M03/M03 A3024 RMK A01 T10291032  RH  098%=      5-min Rain = 0
KJU1 160842Z 00000KT M03/M03 A3024 RMK A01 T10291033  RH  098%=      5-min Rain = 0
KJU1 160843Z 00000KT M03/M03 A3024 RMK A01 T10291033  RH  098%=      5-min Rain = 0
KJU1 160844Z 00000KT M03/M03 A3024 RMK A01 T10291033  RH  098%=      5-min Rain = 0
KJU1 160845Z 00000KT M03/M03 A3024 RMK A01 T10291033  RH  098%=      5-min Rain = 0
KJU1 160846Z 00000KT M03/M03 A3024 RMK A01 T10291033  RH  098%=      5-min Rain = 0
KJU1 160847Z 00000KT M03/M03 A3024 RMK A01 T10291032  RH  098%=      5-min Rain = 0
KJU1 160848Z 00000KT M03/M03 A3024 RMK A01 T10291032  RH  098%=      5-min Rain = 0
KJU1 160849Z 00000KT M03/M03 A3024 RMK A01 T10291032  RH  098%=      5-min Rain = 0
KJU1 160850Z 00000KT M03/M03 A3024 RMK A01 T10291032  RH  098%=      5-min Rain = 0
KJU1 160851Z 00000KT M03/M03 A3024 RMK A01 T10291032  RH  098%=      5-min Rain = 0
KJU1 160852Z 00000KT M03/M03 A3024 RMK A01 T10291032  RH  098%=      5-min Rain = 0
KJU1 160853Z 00000KT M03/M03 A3024 RMK A01 T10291032  RH  098%=      5-min Rain = 0
KJU1 160854Z 00000KT M03/M03 A3024 RMK A01 T10291032  RH  098%=      5-min Rain = 0
KJU1 160855Z 00000KT M03/M03 A3024 RMK A01 T10281032  RH  098%=      5-min Rain = 0
KJU1 160856Z 00000KT M03/M03 A3024 RMK A01 T10291032  RH  098%=      5-min Rain = 0
KJU1 160857Z 00000KT M03/M03 A3024 RMK A01 T10301033  RH  097%=      5-min Rain = 0
KJU1 160858Z 00000KT M03/M03 A3024 RMK A01 T10311034  RH  097%=      5-min Rain = 0
KJU1 160859Z 00000KT M03/M03 A3024 RMK A01 T10311034  RH  097%=      5-min Rain = 0
KJU1 160900Z 00000KT M03/M03 A3024 RMK A01 T10311034  RH  097%=      5-min Rain = 0
KJU1 160901Z 00000KT M03/M03 A3024 RMK A01 T10311034  RH  097%=      5-min Rain = 0
KJU1 160902Z 00000KT M03/M04 A3024 RMK A01 T10311035  RH  097%=      5-min Rain = 0
KJU1 160903Z 00000KT M03/M04 A3024 RMK A01 T10321036  RH  097%=      5-min Rain = 0
KJU1 160904Z 00000KT M03/M04 A3024 RMK A01 T10321036  RH  097%=      5-min Rain = 0
KJU1 160905Z 00000KT M03/M04 A3024 RMK A01 T10321036  RH  097%=      5-min Rain = 0
KJU1 160906Z 00000KT M03/M04 A3024 RMK A01 T10321036  RH  097%=      5-min Rain = 0
KJU1 160907Z 00000KT M03/M04 A3024 RMK A01 T10321036  RH  097%=      5-min Rain = 0
KJU1 160908Z 00000KT M03/M04 A3024 RMK A01 T10321036  RH  097%=      5-min Rain = 0
KJU1 160909Z 00000KT M03/M04 A3024 RMK A01 T10321036  RH  097%=      5-min Rain = 0
KJU1 160910Z 00000KT M03/M04 A3024 RMK A01 T10321036  RH  097%=      5-min Rain = 0
KJU1 160911Z 00000KT M03/M04 A3024 RMK A01 T10321036  RH  097%=      5-min Rain = 0
KJU1 160912Z 00000KT M03/M04 A3023 RMK A01 T10331037  RH  097%=      5-min Rain = 0
KJU1 160913Z 00000KT M03/M04 A3023 RMK A01 T10331037  RH  097%=      5-min Rain = 0
KJU1 160914Z 00000KT M03/M04 A3023 RMK A01 T10331037  RH  097%=      5-min Rain = 0
KJU1 160915Z 00000KT M03/M04 A3023 RMK A01 T10341038  RH  097%=      5-min Rain = 0
KJU1 160916Z 00000KT M03/M04 A3023 RMK A01 T10341038  RH  097%=      5-min Rain = 0
KJU1 160917Z 00000KT M03/M04 A3023 RMK A01 T10341038  RH  097%=      5-min Rain = 0
KJU1 160918Z 00000KT M03/M04 A3023 RMK A01 T10341038  RH  097%=      5-min Rain = 0
KJU1 160919Z 00000KT M03/M04 A3023 RMK A01 T10341038  RH  097%=      5-min Rain = 0
KJU1 160920Z 00000KT M04/M04 A3023 RMK A01 T10351039  RH  097%=      5-min Rain = 0
KJU1 160921Z 00000KT M04/M04 A3023 RMK A01 T10351039  RH  097%=      5-min Rain = 0
KJU1 160922Z 00000KT M04/M04 A3023 RMK A01 T10361040  RH  097%=      5-min Rain = 0
KJU1 160923Z 00000KT M04/M04 A3023 RMK A01 T10361040  RH  097%=      5-min Rain = 0
KJU1 160924Z 00000KT M04/M04 A3023 RMK A01 T10361040  RH  097%=      5-min Rain = 0
KJU1 160925Z 00000KT M04/M04 A3023 RMK A01 T10361039  RH  097%=      5-min Rain = 0
KJU1 160926Z 00000KT M04/M04 A3023 RMK A01 T10351039  RH  097%=      5-min Rain = 0
KJU1 160927Z 00000KT M04/M04 A3023 RMK A01 T10351039  RH  097%=      5-min Rain = 0
KJU1 160928Z 00000KT M04/M04 A3023 RMK A01 T10351039  RH  097%=      5-min Rain = 0
KJU1 160929Z 00000KT M04/M04 A3023 RMK A01 T10351038  RH  097%=      5-min Rain = 0
KJU1 160930Z 00000KT M04/M04 A3023 RMK A01 T10351039  RH  097%=      5-min Rain = 0
KJU1 160931Z 00000KT M04/M04 A3023 RMK A01 T10361040  RH  097%=      5-min Rain = 0
KJU1 160932Z 00000KT M04/M04 A3023 RMK A01 T10361040  RH  097%=      5-min Rain = 0
KJU1 160933Z 00000KT M04/M04 A3023 RMK A01 T10361040  RH  097%=      5-min Rain = 0
KJU1 160934Z 00000KT M04/M04 A3023 RMK A01 T10361040  RH  097%=      5-min Rain = 0
KJU1 160935Z 00000KT M04/M04 A3024 RMK A01 T10371041  RH  097%=      5-min Rain = 0
KJU1 160936Z 00000KT M04/M04 A3023 RMK A01 T10381042  RH  097%=      5-min Rain = 0
KJU1 160937Z 00000KT M04/M04 A3023 RMK A01 T10381043  RH  097%=      5-min Rain = 0
KJU1 160938Z 00000KT M04/M04 A3023 RMK A01 T10381043  RH  097%=      5-min Rain = 0
KJU1 160939Z 00000KT M04/M04 A3023 RMK A01 T10381042  RH  097%=      5-min Rain = 0
KJU1 160940Z 20000KT M04/M04 A3023 RMK A01 T10371042  RH  097%=      5-min Rain = 0
KJU1 160941Z 20001KT M04/M04 A3023 RMK A01 T10371041  RH  097%=      5-min Rain = 0
KJU1 160942Z 20002KT M04/M04 A3023 RMK A01 T10371041  RH  097%=      5-min Rain = 0
KJU1 160943Z 20002KT M04/M04 A3023 RMK A01 T10371041  RH  097%=      5-min Rain = 0
KJU1 160944Z 20002KT M04/M04 A3023 RMK A01 T10361040  RH  097%=      5-min Rain = 0
KJU1 160945Z 20002KT M03/M04 A3023 RMK A01 T10341038  RH  097%=      5-min Rain = 0
KJU1 160946Z 20002KT M03/M04 A3023 RMK A01 T10321035  RH  098%=      5-min Rain = 0
KJU1 160947Z 19002KT M03/M03 A3023 RMK A01 T10311034  RH  098%=      5-min Rain = 0
KJU1 160948Z 19002KT M03/M03 A3023 RMK A01 T10301033  RH  098%=      5-min Rain = 0
KJU1 160949Z 20002KT M03/M03 A3024 RMK A01 T10291032  RH  098%=      5-min Rain = 0
KJU1 160950Z 20002KT M03/M04 A3024 RMK A01 T10311035  RH  097%=      5-min Rain = 0
KJU1 160951Z 20003KT M03/M04 A3024 RMK A01 T10341038  RH  097%=      5-min Rain = 0
KJU1 160952Z 20003KT M03/M04 A3024 RMK A01 T10341039  RH  097%=      5-min Rain = 0
KJU1 160953Z 20003KT M03/M04 A3024 RMK A01 T10341038  RH  097%=      5-min Rain = 0
KJU1 160954Z 19003KT M03/M04 A3024 RMK A01 T10331037  RH  097%=      5-min Rain = 0
KJU1 160955Z 19003KT M03/M04 A3024 RMK A01 T10331037  RH  097%=      5-min Rain = 0
KJU1 160956Z 19003KT M03/M04 A3024 RMK A01 T10331037  RH  097%=      5-min Rain = 0
KJU1 160957Z 19003KT M03/M04 A3024 RMK A01 T10331037  RH  097%=      5-min Rain = 0
KJU1 160958Z 18003KT M03/M04 A3023 RMK A01 T10341038  RH  097%=      5-min Rain = 0
KJU1 160959Z 18002KT M03/M04 A3023 RMK A01 T10341038  RH  097%=      5-min Rain = 0
KJU1 161000Z 17002KT M03/M04 A3023 RMK A01 T10341038  RH  097%=      5-min Rain = 0
KJU1 161001Z 18002KT M03/M04 A3023 RMK A01 T10331037  RH  097%=      5-min Rain = 0
KJU1 161002Z 18002KT M03/M04 A3023 RMK A01 T10321035  RH  098%=      5-min Rain = 0
KJU1 161003Z 18002KT M03/M04 A3023 RMK A01 T10311035  RH  098%=      5-min Rain = 0
KJU1 161004Z 18001KT M03/M03 A3023 RMK A01 T10311034  RH  098%=      5-min Rain = 0
KJU1 161005Z 17001KT M03/M03 A3023 RMK A01 T10301034  RH  098%=      5-min Rain = 0
KJU1 161006Z 17001KT M03/M03 A3023 RMK A01 T10301033  RH  098%=      5-min Rain = 0
KJU1 161007Z 17001KT M03/M03 A3023 RMK A01 T10301033  RH  098%=      5-min Rain = 0
KJU1 161008Z 17001KT M03/M03 A3023 RMK A01 T10291032  RH  098%=      5-min Rain = 0
KJU1 161009Z 17000KT M03/M03 A3023 RMK A01 T10271030  RH  098%=      5-min Rain = 0
KJU1 161010Z 00000KT M03/M03 A3023 RMK A01 T10261029  RH  098%=      5-min Rain = 0
KJU1 161011Z 00000KT M03/M03 A3023 RMK A01 T10261029  RH  098%=      5-min Rain = 0
KJU1 161012Z 00000KT M03/M03 A3023 RMK A01 T10261028  RH  098%=      5-min Rain = 0
KJU1 161013Z 21000KT M03/M03 A3023 RMK A01 T10261029  RH  098%=      5-min Rain = 0
KJU1 161014Z 22001KT M03/M03 A3023 RMK A01 T10261029  RH  098%=      5-min Rain = 0
KJU1 161015Z 23001KT M03/M03 A3023 RMK A01 T10281032  RH  098%=      5-min Rain = 0
KJU1 161016Z 23000KT M03/M03 A3023 RMK A01 T10291033  RH  097%=      5-min Rain = 0
KJU1 161017Z 00000KT M03/M03 A3023 RMK A01 T10301034  RH  097%=      5-min Rain = 0
KJU1 161018Z 00000KT M03/M04 A3023 RMK A01 T10321036  RH  097%=      5-min Rain = 0
KJU1 161019Z 00000KT M03/M04 A3023 RMK A01 T10331037  RH  097%=      5-min Rain = 0
KJU1 161020Z 00000KT M03/M04 A3023 RMK A01 T10341037  RH  097%=      5-min Rain = 0
KJU1 161021Z 00000KT M03/M04 A3023 RMK A01 T10321036  RH  098%=      5-min Rain = 0
KJU1 161022Z 00000KT M03/M03 A3023 RMK A01 T10301033  RH  098%=      5-min Rain = 0
KJU1 161023Z 00000KT M03/M03 A3023 RMK A01 T10301032  RH  098%=      5-min Rain = 0
KJU1 161024Z 00000KT M03/M03 A3023 RMK A01 T10311034  RH  098%=      5-min Rain = 0
KJU1 161025Z 00000KT M03/M04 A3023 RMK A01 T10331037  RH  098%=      5-min Rain = 0
KJU1 161026Z 00000KT M04/M04 A3023 RMK A01 T10351039  RH  097%=      5-min Rain = 0
KJU1 161027Z 00000KT M04/M04 A3023 RMK A01 T10361039  RH  097%=      5-min Rain = 0
KJU1 161028Z 00000KT M04/M04 A3023 RMK A01 T10361039  RH  097%=      5-min Rain = 0
KJU1 161029Z 00000KT M04/M04 A3023 RMK A01 T10361039  RH  097%=      5-min Rain = 0
KJU1 161030Z 00000KT M04/M04 A3023 RMK A01 T10361039  RH  098%=      5-min Rain = 0
KJU1 161031Z 00000KT M03/M04 A3023 RMK A01 T10341037  RH  098%=      5-min Rain = 0
KJU1 161032Z 00000KT M03/M04 A3023 RMK A01 T10341037  RH  098%=      5-min Rain = 0
KJU1 161033Z 00000KT M03/M04 A3023 RMK A01 T10331036  RH  098%=      5-min Rain = 0
KJU1 161034Z 00000KT M03/M04 A3023 RMK A01 T10331036  RH  098%=      5-min Rain = 0
KJU1 161035Z 00000KT M03/M04 A3023 RMK A01 T10331036  RH  098%=      5-min Rain = 0
KJU1 161036Z 00000KT M03/M04 A3023 RMK A01 T10331036  RH  098%=      5-min Rain = 0
KJU1 161037Z 00000KT M04/M04 A3023 RMK A01 T10351038  RH  098%=      5-min Rain = 0
KJU1 161038Z 00000KT M04/M04 A3023 RMK A01 T10371040  RH  097%=      5-min Rain = 0
KJU1 161039Z 00000KT M04/M04 A3023 RMK A01 T10391043  RH  097%=      5-min Rain = 0
KJU1 161040Z 00000KT M04/M04 A3023 RMK A01 T10401044  RH  097%=      5-min Rain = 0
KJU1 161041Z 00000KT M04/M05 A3023 RMK A01 T10411045  RH  097%=      5-min Rain = 0
KJU1 161042Z 00000KT M04/M05 A3023 RMK A01 T10421046  RH  097%=      5-min Rain = 0
KJU1 161043Z 00000KT M04/M05 A3023 RMK A01 T10431046  RH  097%=      5-min Rain = 0
KJU1 161044Z 00000KT M04/M05 A3023 RMK A01 T10431046  RH  097%=      5-min Rain = 0
KJU1 161045Z 24001KT M04/M05 A3023 RMK A01 T10421045  RH  097%=      5-min Rain = 0
KJU1 161046Z 23001KT M04/M04 A3023 RMK A01 T10411044  RH  098%=      5-min Rain = 0
KJU1 161047Z 22001KT M04/M04 A3023 RMK A01 T10401043  RH  098%=      5-min Rain = 0
KJU1 161048Z 22001KT M04/M04 A3023 RMK A01 T10391043  RH  098%=      5-min Rain = 0
KJU1 161049Z 22001KT M04/M04 A3023 RMK A01 T10401043  RH  098%=      5-min Rain = 0
KJU1 161050Z 21001KT M04/M04 A3023 RMK A01 T10411044  RH  097%=      5-min Rain = 0
KJU1 161051Z 20001KT M04/M04 A3023 RMK A01 T10411044  RH  097%=      5-min Rain = 0
KJU1 161052Z 20001KT M04/M05 A3023 RMK A01 T10411045  RH  097%=      5-min Rain = 0
KJU1 161053Z 19001KT M04/M05 A3023 RMK A01 T10421046  RH  097%=      5-min Rain = 0
KJU1 161054Z 19001KT M04/M05 A3023 RMK A01 T10431047  RH  097%=      5-min Rain = 0
KJU1 161055Z 19001KT M04/M05 A3023 RMK A01 T10431047  RH  097%=      5-min Rain = 0
KJU1 161056Z 19001KT M04/M05 A3023 RMK A01 T10421046  RH  097%=      5-min Rain = 0
KJU1 161057Z 19001KT M04/M04 A3023 RMK A01 T10401043  RH  098%=      5-min Rain = 0
KJU1 161058Z 19001KT M04/M04 A3024 RMK A01 T10381041  RH  098%=      5-min Rain = 0
KJU1 161059Z 19002KT M04/M04 A3024 RMK A01 T10371040  RH  098%=      5-min Rain = 0
KJU1 161100Z 19002KT M04/M04 A3024 RMK A01 T10351037  RH  098%=      5-min Rain = 0
KJU1 161101Z 19002KT M03/M04 A3023 RMK A01 T10331036  RH  098%=      5-min Rain = 0
KJU1 161102Z 19002KT M03/M04 A3023 RMK A01 T10321035  RH  098%=      5-min Rain = 0
KJU1 161103Z 19002KT M03/M03 A3023 RMK A01 T10321034  RH  098%=      5-min Rain = 0
KJU1 161104Z 19002KT M03/M04 A3023 RMK A01 T10321035  RH  098%=      5-min Rain = 0
KJU1 161105Z 19001KT M04/M04 A3023 RMK A01 T10351038  RH  098%=      5-min Rain = 0
KJU1 161106Z 19002KT M04/M04 A3023 RMK A01 T10371041  RH  097%=      5-min Rain = 0
KJU1 161107Z 19002KT M04/M04 A3023 RMK A01 T10391043  RH  097%=      5-min Rain = 0
KJU1 161108Z 19002KT M04/M04 A3023 RMK A01 T10401044  RH  097%=      5-min Rain = 0
KJU1 161109Z 19001KT M04/M05 A3023 RMK A01 T10411045  RH  097%=      5-min Rain = 0
KJU1 161110Z 19002KT M04/M05 A3023 RMK A01 T10421046  RH  097%=      5-min Rain = 0
KJU1 161111Z 18001KT M04/M05 A3023 RMK A01 T10431047  RH  097%=      5-min Rain = 0
KJU1 161112Z 18002KT M04/M05 A3023 RMK A01 T10421046  RH  097%=      5-min Rain = 0
KJU1 161113Z 20001KT M04/M04 A3023 RMK A01 T10411044  RH  097%=      5-min Rain = 0
KJU1 161114Z 20001KT M04/M04 A3023 RMK A01 T10391043  RH  098%=      5-min Rain = 0
KJU1 161115Z 22001KT M04/M04 A3023 RMK A01 T10381041  RH  098%=      5-min Rain = 0
KJU1 161116Z 20001KT M04/M04 A3023 RMK A01 T10371040  RH  098%=      5-min Rain = 0
KJU1 161117Z 20001KT M04/M04 A3023 RMK A01 T10361039  RH  098%=      5-min Rain = 0
KJU1 161118Z 20001KT M04/M04 A3023 RMK A01 T10361039  RH  098%=      5-min Rain = 0
KJU1 161119Z 21001KT M04/M04 A3023 RMK A01 T10351038  RH  098%=      5-min Rain = 0
KJU1 161120Z 21000KT M04/M04 A3023 RMK A01 T10351038  RH  098%=      5-min Rain = 0
KJU1 161121Z 23000KT M04/M04 A3023 RMK A01 T10361039  RH  098%=      5-min Rain = 0
KJU1 161122Z 23000KT M04/M04 A3023 RMK A01 T10381041  RH  097%=      5-min Rain = 0
KJU1 161123Z 00000KT M04/M04 A3023 RMK A01 T10391043  RH  097%=      5-min Rain = 0
KJU1 161124Z 27000KT M04/M04 A3023 RMK A01 T10401044  RH  097%=      5-min Rain = 0
KJU1 161125Z 27001KT M04/M04 A3023 RMK A01 T10401044  RH  097%=      5-min Rain = 0
KJU1 161126Z 27001KT M04/M04 A3023 RMK A01 T10411044  RH  097%=      5-min Rain = 0
KJU1 161127Z 27001KT M04/M04 A3023 RMK A01 T10411044  RH  097%=      5-min Rain = 0
KJU1 161128Z 27000KT M04/M04 A3023 RMK A01 T10411044  RH  097%=      5-min Rain = 0
KJU1 161129Z 00000KT M04/M05 A3023 RMK A01 T10411045  RH  097%=      5-min Rain = 0
KJU1 161130Z 00000KT M04/M05 A3023 RMK A01 T10411045  RH  097%=      5-min Rain = 0
KJU1 161131Z 00000KT M04/M05 A3023 RMK A01 T10421046  RH  097%=      5-min Rain = 0
KJU1 161132Z 00000KT M04/M05 A3023 RMK A01 T10411045  RH  097%=      5-min Rain = 0
KJU1 161133Z 00000KT M04/M05 A3023 RMK A01 T10421046  RH  097%=      5-min Rain = 0
KJU1 161134Z 00000KT M04/M05 A3023 RMK A01 T10431047  RH  097%=      5-min Rain = 0
KJU1 161135Z 00000KT M04/M05 A3023 RMK A01 T10431047  RH  097%=      5-min Rain = 0
KJU1 161136Z 00000KT M04/M05 A3023 RMK A01 T10421046  RH  097%=      5-min Rain = 0
KJU1 161137Z 00000KT M04/M05 A3023 RMK A01 T10421046  RH  097%=      5-min Rain = 0
KJU1 161138Z 00000KT M04/M05 A3023 RMK A01 T10431047  RH  097%=      5-min Rain = 0
KJU1 161139Z 00000KT M04/M05 A3023 RMK A01 T10431047  RH  097%=      5-min Rain = 0
KJU1 161140Z 00000KT M04/M05 A3023 RMK A01 T10431046  RH  097%=      5-min Rain = 0
KJU1 161141Z 00000KT M04/M05 A3023 RMK A01 T10431047  RH  097%=      5-min Rain = 0
KJU1 161142Z 00000KT M04/M05 A3023 RMK A01 T10431047  RH  097%=      5-min Rain = 0
KJU1 161143Z 00000KT M04/M05 A3023 RMK A01 T10441048  RH  097%=      5-min Rain = 0
KJU1 161144Z 00000KT M04/M05 A3023 RMK A01 T10441048  RH  097%=      5-min Rain = 0
KJU1 161145Z 00000KT M04/M05 A3023 RMK A01 T10441048  RH  097%=      5-min Rain = 0
KJU1 161146Z 00000KT M04/M05 A3023 RMK A01 T10441048  RH  097%=      5-min Rain = 0
KJU1 161147Z 00000KT M04/M05 A3023 RMK A01 T10441048  RH  097%=      5-min Rain = 0
KJU1 161148Z 00000KT M04/M05 A3023 RMK A01 T10441048  RH  097%=      5-min Rain = 0
KJU1 161149Z 00000KT M05/M05 A3024 RMK A01 T10451049  RH  097%=      5-min Rain = 0
KJU1 161150Z 00000KT M04/M05 A3024 RMK A01 T10441048  RH  097%=      5-min Rain = 0
KJU1 161151Z 00000KT M04/M05 A3024 RMK A01 T10441048  RH  097%=      5-min Rain = 0
KJU1 161152Z 00000KT M05/M05 A3024 RMK A01 T10451049  RH  097%=      5-min Rain = 0
KJU1 161153Z 00000KT M05/M05 A3024 RMK A01 T10451050  RH  097%=      5-min Rain = 0
KJU1 161154Z 00000KT M05/M05 A3024 RMK A01 T10461050  RH  097%=      5-min Rain = 0
KJU1 161155Z 00000KT M05/M05 A3024 RMK A01 T10461050  RH  097%=      5-min Rain = 0
KJU1 161156Z 00000KT M05/M05 A3024 RMK A01 T10461050  RH  097%=      5-min Rain = 0
KJU1 161157Z 00000KT M05/M05 A3024 RMK A01 T10461050  RH  097%=      5-min Rain = 0
KJU1 161158Z 00000KT M05/M05 A3024 RMK A01 T10461050  RH  097%=      5-min Rain = 0
KJU1 161159Z 00000KT M05/M05 A3024 RMK A01 T10461050  RH  097%=      5-min Rain = 0
KJU1 161200Z 00000KT M05/M05 A3024 RMK A01 T10461051  RH  097%=      5-min Rain = 0
KJU1 161201Z 00000KT M05/M05 A3024 RMK A01 T10461050  RH  097%=      5-min Rain = 0
KJU1 161202Z 00000KT M05/M05 A3024 RMK A01 T10451049  RH  097%=      5-min Rain = 0
KJU1 161203Z 00000KT M05/M05 A3024 RMK A01 T10451049  RH  097%=      5-min Rain = 0
KJU1 161204Z 00000KT M05/M05 A3024 RMK A01 T10451050  RH  097%=      5-min Rain = 0
KJU1 161205Z 00000KT M05/M05 A3024 RMK A01 T10451049  RH  097%=      5-min Rain = 0
KJU1 161206Z 00000KT M04/M05 A3024 RMK A01 T10441048  RH  097%=      5-min Rain = 0
KJU1 161207Z 00000KT M04/M05 A3024 RMK A01 T10441048  RH  097%=      5-min Rain = 0
KJU1 161208Z 00000KT M04/M05 A3024 RMK A01 T10441048  RH  097%=      5-min Rain = 0
KJU1 161209Z 00000KT M04/M05 A3024 RMK A01 T10441048  RH  097%=      5-min Rain = 0
KJU1 161210Z 00000KT M04/M05 A3024 RMK A01 T10441048  RH  097%=      5-min Rain = 0
KJU1 161211Z 00000KT M04/M05 A3024 RMK A01 T10431047  RH  097%=      5-min Rain = 0
KJU1 161212Z 00000KT M04/M05 A3024 RMK A01 T10431048  RH  097%=      5-min Rain = 0
KJU1 161213Z 00000KT M04/M05 A3024 RMK A01 T10441048  RH  097%=      5-min Rain = 0
KJU1 161214Z 20000KT M05/M05 A3024 RMK A01 T10451049  RH  097%=      5-min Rain = 0
KJU1 161215Z 20001KT M05/M05 A3024 RMK A01 T10451050  RH  097%=      5-min Rain = 0
KJU1 161216Z 20001KT M05/M05 A3024 RMK A01 T10461051  RH  097%=      5-min Rain = 0
KJU1 161217Z 20001KT M05/M05 A3024 RMK A01 T10471052  RH  096%=      5-min Rain = 0
KJU1 161218Z 20001KT M05/M05 A3024 RMK A01 T10481052  RH  096%=      5-min Rain = 0
KJU1 161219Z 20001KT M05/M05 A3024 RMK A01 T10471051  RH  097%=      5-min Rain = 0
KJU1 161220Z 20002KT M05/M05 A3024 RMK A01 T10461050  RH  097%=      5-min Rain = 0
KJU1 161221Z 20002KT M04/M05 A3025 RMK A01 T10431046  RH  097%=      5-min Rain = 0
KJU1 161222Z 20002KT M04/M04 A3025 RMK A01 T10401044  RH  097%=      5-min Rain = 0
KJU1 161223Z 20002KT M04/M04 A3025 RMK A01 T10381042  RH  097%=      5-min Rain = 0
KJU1 161224Z 20002KT M04/M04 A3025 RMK A01 T10381042  RH  097%=      5-min Rain = 0
KJU1 161225Z 20002KT M04/M04 A3025 RMK A01 T10391043  RH  097%=      5-min Rain = 0
KJU1 161226Z 20002KT M04/M05 A3025 RMK A01 T10411046  RH  097%=      5-min Rain = 0
KJU1 161227Z 20002KT M04/M05 A3025 RMK A01 T10431048  RH  097%=      5-min Rain = 0
KJU1 161228Z 20002KT M05/M05 A3025 RMK A01 T10451050  RH  096%=      5-min Rain = 0
KJU1 161229Z 20003KT M05/M05 A3025 RMK A01 T10471052  RH  096%=      5-min Rain = 0
KJU1 161230Z 19003KT M05/M05 A3025 RMK A01 T10471052  RH  096%=      5-min Rain = 0
KJU1 161231Z 19003KT M05/M05 A3025 RMK A01 T10471052  RH  096%=      5-min Rain = 0
KJU1 161232Z 19003KT M05/M05 A3025 RMK A01 T10451049  RH  097%=      5-min Rain = 0
KJU1 161233Z 19003KT M04/M05 A3025 RMK A01 T10421046  RH  097%=      5-min Rain = 0
KJU1 161234Z 19003KT M04/M04 A3025 RMK A01 T10401044  RH  097%=      5-min Rain = 0
KJU1 161235Z 18003KT M04/M04 A3025 RMK A01 T10391043  RH  097%=      5-min Rain = 0
KJU1 161236Z 18003KT M04/M04 A3025 RMK A01 T10381042  RH  098%=      5-min Rain = 0
KJU1 161237Z 18003KT M04/M04 A3025 RMK A01 T10381042  RH  098%=      5-min Rain = 0
KJU1 161238Z 18003KT M04/M04 A3025 RMK A01 T10381042  RH  097%=      5-min Rain = 0
KJU1 161239Z 18003KT M04/M04 A3025 RMK A01 T10381042  RH  097%=      5-min Rain = 0
KJU1 161240Z 18003KT M04/M04 A3025 RMK A01 T10401044  RH  097%=      5-min Rain = 0
KJU1 161241Z 17003KT M04/M05 A3025 RMK A01 T10411045  RH  097%=      5-min Rain = 0
KJU1 161242Z 17003KT M04/M05 A3025 RMK A01 T10411045  RH  097%=      5-min Rain = 0
KJU1 161243Z 17003KT M04/M05 A3025 RMK A01 T10411045  RH  097%=      5-min Rain = 0
KJU1 161244Z 18003KT M04/M04 A3025 RMK A01 T10401044  RH  097%=      5-min Rain = 0
KJU1 161245Z 18003KT M04/M04 A3025 RMK A01 T10391043  RH  097%=      5-min Rain = 0
KJU1 161246Z 18002KT M04/M04 A3025 RMK A01 T10391042  RH  097%=      5-min Rain = 0
KJU1 161247Z 18003KT M04/M04 A3025 RMK A01 T10391042  RH  097%=      5-min Rain = 0
KJU1 161248Z 18002KT M04/M04 A3025 RMK A01 T10391043  RH  097%=      5-min Rain = 0
KJU1 161249Z 18002KT M04/M04 A3025 RMK A01 T10391043  RH  097%=      5-min Rain = 0
KJU1 161250Z 18002KT M04/M04 A3025 RMK A01 T10391043  RH  097%=      5-min Rain = 0
KJU1 161251Z 17002KT M04/M04 A3025 RMK A01 T10391043  RH  097%=      5-min Rain = 0
KJU1 161252Z 17002KT M04/M04 A3025 RMK A01 T10391043  RH  097%=      5-min Rain = 0
KJU1 161253Z 17002KT M04/M04 A3025 RMK A01 T10391043  RH  097%=      5-min Rain = 0
KJU1 161254Z 18001KT M04/M04 A3025 RMK A01 T10391043  RH  097%=      5-min Rain = 0
KJU1 161255Z 18001KT M04/M04 A3025 RMK A01 T10401044  RH  097%=      5-min Rain = 0
KJU1 161256Z 18001KT M04/M04 A3025 RMK A01 T10401044  RH  097%=      5-min Rain = 0
KJU1 161257Z 18001KT M04/M04 A3025 RMK A01 T10401044  RH  097%=      5-min Rain = 0
KJU1 161258Z 18001KT M04/M05 A3025 RMK A01 T10411045  RH  097%=      5-min Rain = 0
KJU1 161259Z 17001KT M04/M05 A3025 RMK A01 T10411045  RH  097%=      5-min Rain = 0
KJU1 161300Z 17000KT M04/M05 A3025 RMK A01 T10411045  RH  097%=      5-min Rain = 0
KJU1 161301Z 17000KT M04/M05 A3025 RMK A01 T10411045  RH  097%=      5-min Rain = 0
KJU1 161302Z 00000KT M04/M05 A3025 RMK A01 T10411045  RH  097%=      5-min Rain = 0
KJU1 161303Z 00000KT M04/M05 A3025 RMK A01 T10411045  RH  097%=      5-min Rain = 0
KJU1 161304Z 00000KT M04/M05 A3025 RMK A01 T10411045  RH  097%=      5-min Rain = 0
KJU1 161305Z 00000KT M04/M05 A3025 RMK A01 T10411045  RH  097%=      5-min Rain = 0
KJU1 161306Z 00000KT M04/M05 A3025 RMK A01 T10411045  RH  097%=      5-min Rain = 0
KJU1 161307Z 00000KT M04/M05 A3025 RMK A01 T10411045  RH  097%=      5-min Rain = 0
KJU1 161308Z 00000KT M04/M04 A3026 RMK A01 T10401044  RH  097%=      5-min Rain = 0
KJU1 161309Z 00000KT M04/M04 A3026 RMK A01 T10391043  RH  097%=      5-min Rain = 0
KJU1 161310Z 00000KT M04/M04 A3026 RMK A01 T10391043  RH  097%=      5-min Rain = 0
KJU1 161311Z 00000KT M04/M05 A3026 RMK A01 T10411045  RH  097%=      5-min Rain = 0
KJU1 161312Z 00000KT M04/M05 A3026 RMK A01 T10411046  RH  097%=      5-min Rain = 0
KJU1 161313Z 00000KT M04/M05 A3026 RMK A01 T10421047  RH  097%=      5-min Rain = 0
KJU1 161314Z 00000KT M04/M05 A3026 RMK A01 T10421047  RH  097%=      5-min Rain = 0
KJU1 161315Z 00000KT M04/M05 A3026 RMK A01 T10421046  RH  097%=      5-min Rain = 0
KJU1 161316Z 00000KT M04/M05 A3026 RMK A01 T10401045  RH  097%=      5-min Rain = 0
KJU1 161317Z 00000KT M04/M04 A3025 RMK A01 T10401044  RH  097%=      5-min Rain = 0
KJU1 161318Z 00000KT M04/M04 A3026 RMK A01 T10391044  RH  097%=      5-min Rain = 0
KJU1 161319Z 00000KT M04/M05 A3026 RMK A01 T10411045  RH  097%=      5-min Rain = 0
KJU1 161320Z 00000KT M04/M05 A3026 RMK A01 T10421047  RH  097%=      5-min Rain = 0
KJU1 161321Z 00000KT M04/M05 A3026 RMK A01 T10431047  RH  097%=      5-min Rain = 0
KJU1 161322Z 00000KT M04/M05 A3026 RMK A01 T10431048  RH  097%=      5-min Rain = 0
KJU1 161323Z 00000KT M04/M05 A3026 RMK A01 T10431048  RH  097%=      5-min Rain = 0
KJU1 161324Z 00000KT M04/M05 A3026 RMK A01 T10421047  RH  097%=      5-min Rain = 0
KJU1 161325Z 00000KT M04/M05 A3026 RMK A01 T10421046  RH  097%=      5-min Rain = 0
KJU1 161326Z 00000KT M04/M05 A3026 RMK A01 T10411045  RH  097%=      5-min Rain = 0
KJU1 161327Z 00000KT M04/M05 A3026 RMK A01 T10411045  RH  097%=      5-min Rain = 0
KJU1 161328Z 00000KT M04/M05 A3026 RMK A01 T10411045  RH  097%=      5-min Rain = 0
KJU1 161329Z 00000KT M04/M05 A3026 RMK A01 T10411045  RH  097%=      5-min Rain = 0
KJU1 161330Z 00000KT M04/M05 A3026 RMK A01 T10401045  RH  097%=      5-min Rain = 0
KJU1 161331Z 00000KT M04/M05 A3026 RMK A01 T10411046  RH  097%=      5-min Rain = 0
KJU1 161332Z 00000KT M04/M05 A3026 RMK A01 T10411046  RH  097%=      5-min Rain = 0
KJU1 161333Z 00000KT M04/M05 A3026 RMK A01 T10411046  RH  097%=      5-min Rain = 0
KJU1 161334Z 00000KT M04/M05 A3026 RMK A01 T10411045  RH  097%=      5-min Rain = 0
KJU1 161335Z 00000KT M04/M04 A3026 RMK A01 T10401044  RH  097%=      5-min Rain = 0
KJU1 161336Z 00000KT M04/M04 A3026 RMK A01 T10381042  RH  097%=      5-min Rain = 0
KJU1 161337Z 00000KT M04/M04 A3026 RMK A01 T10371042  RH  097%=      5-min Rain = 0
KJU1 161338Z 00000KT M04/M04 A3026 RMK A01 T10371041  RH  097%=      5-min Rain = 0
KJU1 161339Z 00000KT M04/M04 A3026 RMK A01 T10371041  RH  097%=      5-min Rain = 0
KJU1 161340Z 00000KT M04/M04 A3026 RMK A01 T10351039  RH  097%=      5-min Rain = 0
KJU1 161341Z 00000KT M03/M04 A3026 RMK A01 T10331037  RH  097%=      5-min Rain = 0
KJU1 161342Z 00000KT M03/M04 A3026 RMK A01 T10311035  RH  097%=      5-min Rain = 0
KJU1 161343Z 00000KT M03/M03 A3026 RMK A01 T10291033  RH  097%=      5-min Rain = 0
KJU1 161344Z 00000KT M03/M03 A3026 RMK A01 T10271031  RH  098%=      5-min Rain = 0
KJU1 161345Z 00000KT M03/M03 A3026 RMK A01 T10251029  RH  098%=      5-min Rain = 0
KJU1 161346Z 21001KT M02/M03 A3026 RMK A01 T10231027  RH  098%=      5-min Rain = 0
KJU1 161347Z 21001KT M02/M03 A3026 RMK A01 T10221025  RH  098%=      5-min Rain = 0
KJU1 161348Z 21001KT M02/M02 A3026 RMK A01 T10211024  RH  098%=      5-min Rain = 0
KJU1 161349Z 21001KT M02/M02 A3026 RMK A01 T10201023  RH  098%=      5-min Rain = 0
KJU1 161350Z 22001KT M02/M02 A3026 RMK A01 T10191022  RH  098%=      5-min Rain = 0
KJU1 161351Z 20000KT M02/M02 A3026 RMK A01 T10181021  RH  098%=      5-min Rain = 0
KJU1 161352Z 20001KT M02/M02 A3026 RMK A01 T10161020  RH  098%=      5-min Rain = 0
KJU1 161353Z 21002KT M02/M02 A3026 RMK A01 T10161020  RH  098%=      5-min Rain = 0
KJU1 161354Z 20001KT M02/M02 A3026 RMK A01 T10161019  RH  098%=      5-min Rain = 0
KJU1 161355Z 20002KT M02/M02 A3026 RMK A01 T10161020  RH  098%=      5-min Rain = 0
KJU1 161356Z 21001KT M02/M02 A3026 RMK A01 T10151019  RH  098%=      5-min Rain = 0
KJU1 161357Z 19001KT M02/M02 A3026 RMK A01 T10151018  RH  098%=      5-min Rain = 0
KJU1 161358Z 20001KT M01/M02 A3026 RMK A01 T10141017  RH  098%=      5-min Rain = 0
KJU1 161359Z 20001KT M01/M02 A3026 RMK A01 T10131016  RH  098%=      5-min Rain = 0
KJU1 161400Z 19002KT M01/M02 A3026 RMK A01 T10121016  RH  098%=      5-min Rain = 0
KJU1 161401Z 19002KT M01/M02 A3026 RMK A01 T10121015  RH  098%=      5-min Rain = 0
KJU1 161402Z 20002KT M01/M02 A3026 RMK A01 T10121015  RH  097%=      5-min Rain = 0
KJU1 161403Z 20002KT M01/M02 A3026 RMK A01 T10121016  RH  097%=      5-min Rain = 0
KJU1 161404Z 20002KT M01/M02 A3026 RMK A01 T10121015  RH  097%=      5-min Rain = 0
KJU1 161405Z 19002KT M01/M02 A3026 RMK A01 T10111015  RH  097%=      5-min Rain = 0
KJU1 161406Z 19002KT M01/M01 A3026 RMK A01 T10111014  RH  097%=      5-min Rain = 0
KJU1 161407Z 20002KT M01/M01 A3026 RMK A01 T10101014  RH  097%=      5-min Rain = 0
KJU1 161408Z 20002KT M01/M01 A3026 RMK A01 T10101014  RH  097%=      5-min Rain = 0
KJU1 161409Z 21001KT M01/M01 A3026 RMK A01 T10101013  RH  097%=      5-min Rain = 0
KJU1 161410Z 21001KT M01/M01 A3026 RMK A01 T10091013  RH  097%=      5-min Rain = 0
KJU1 161411Z 21001KT M01/M01 A3026 RMK A01 T10081012  RH  097%=      5-min Rain = 0
KJU1 161412Z 21001KT M01/M01 A3026 RMK A01 T10071011  RH  097%=      5-min Rain = 0
KJU1 161413Z 24001KT M01/M01 A3026 RMK A01 T10071011  RH  097%=      5-min Rain = 0
KJU1 161414Z 21001KT M01/M01 A3026 RMK A01 T10061010  RH  097%=      5-min Rain = 0
KJU1 161415Z 24001KT M01/M01 A3026 RMK A01 T10061009  RH  097%=      5-min Rain = 0
KJU1 161416Z 23001KT M01/M01 A3026 RMK A01 T10051009  RH  097%=      5-min Rain = 0
KJU1 161417Z 23002KT M01/M01 A3026 RMK A01 T10051009  RH  097%=      5-min Rain = 0
KJU1 161418Z 22001KT M01/M01 A3026 RMK A01 T10051008  RH  097%=      5-min Rain = 0
KJU1 161419Z 22001KT M00/M01 A3026 RMK A01 T10041008  RH  097%=      5-min Rain = 0
KJU1 161420Z 21001KT M00/M01 A3026 RMK A01 T10041008  RH  097%=      5-min Rain = 0
KJU1 161421Z 22002KT M00/M01 A3026 RMK A01 T10031007  RH  097%=      5-min Rain = 0
KJU1 161422Z 20001KT M00/M01 A3026 RMK A01 T10031007  RH  097%=      5-min Rain = 0
KJU1 161423Z 20001KT M00/M01 A3026 RMK A01 T10031007  RH  097%=      5-min Rain = 0
KJU1 161424Z 20001KT M00/M01 A3026 RMK A01 T10021006  RH  097%=      5-min Rain = 0
KJU1 161425Z 21001KT M00/M01 A3026 RMK A01 T10011005  RH  097%=      5-min Rain = 0
KJU1 161426Z 23001KT M00/M01 A3026 RMK A01 T10011005  RH  097%=      5-min Rain = 0
KJU1 161427Z 22001KT M00/M01 A3026 RMK A01 T10011005  RH  097%=      5-min Rain = 0
KJU1 161428Z 22001KT 00/01 A3026 RMK A01 T00-000-5  RH  097%=      5-min Rain = 0
KJU1 161429Z 24001KT 00/M00 A3026 RMK A01 T00011004  RH  097%=      5-min Rain = 0
KJU1 161430Z 25001KT 00/M00 A3026 RMK A01 T00011004  RH  097%=      5-min Rain = 0
KJU1 161431Z 24001KT 00/M00 A3026 RMK A01 T00011004  RH  096%=      5-min Rain = 0
KJU1 161432Z 23001KT 00/M00 A3026 RMK A01 T00021004  RH  096%=      5-min Rain = 0
KJU1 161433Z 24000KT 00/M00 A3026 RMK A01 T00021003  RH  096%=      5-min Rain = 0
KJU1 161434Z 24001KT 00/M00 A3026 RMK A01 T00031002  RH  096%=      5-min Rain = 0
KJU1 161435Z 24001KT 00/M00 A3026 RMK A01 T00041002  RH  096%=      5-min Rain = 0
KJU1 161436Z 24001KT 00/M00 A3026 RMK A01 T00041001  RH  096%=      5-min Rain = 0
KJU1 161437Z 24000KT 01/00 A3026 RMK A01 T000500-0  RH  096%=      5-min Rain = 0
KJU1 161438Z 20000KT 01/00 A3026 RMK A01 T000500-0  RH  096%=      5-min Rain = 0
KJU1 161439Z 00000KT 01/00 A3026 RMK A01 T00070001  RH  096%=      5-min Rain = 0
KJU1 161440Z 00000KT 01/00 A3026 RMK A01 T00080002  RH  096%=      5-min Rain = 0
KJU1 161441Z 00000KT 01/00 A3026 RMK A01 T00090003  RH  096%=      5-min Rain = 0
KJU1 161442Z 00000KT 01/00 A3026 RMK A01 T00090004  RH  096%=      5-min Rain = 0
KJU1 161443Z 00000KT 01/00 A3026 RMK A01 T00100004  RH  096%=      5-min Rain = 0
KJU1 161444Z 20001KT 01/00 A3026 RMK A01 T00100004  RH  096%=      5-min Rain = 0
KJU1 161445Z 20001KT 01/01 A3026 RMK A01 T00120006  RH  096%=      5-min Rain = 0
KJU1 161446Z 20001KT 01/01 A3026 RMK A01 T00130007  RH  096%=      5-min Rain = 0
KJU1 161447Z 20001KT 01/01 A3026 RMK A01 T00130007  RH  096%=      5-min Rain = 0
KJU1 161448Z 19001KT 01/01 A3026 RMK A01 T00140008  RH  096%=      5-min Rain = 0
KJU1 161449Z 19001KT 02/01 A3026 RMK A01 T00150009  RH  096%=      5-min Rain = 0
KJU1 161450Z 17001KT 02/01 A3026 RMK A01 T00170010  RH  096%=      5-min Rain = 0
KJU1 161451Z 21001KT 02/01 A3026 RMK A01 T00180012  RH  096%=      5-min Rain = 0
KJU1 161452Z 19001KT 02/01 A3026 RMK A01 T00190012  RH  096%=      5-min Rain = 0
KJU1 161453Z 20001KT 02/01 A3026 RMK A01 T00200014  RH  096%=      5-min Rain = 0
KJU1 161454Z 19000KT 02/01 A3026 RMK A01 T00210014  RH  095%=      5-min Rain = 0
KJU1 161455Z 00000KT 02/01 A3026 RMK A01 T00220014  RH  095%=      5-min Rain = 0
KJU1 161456Z 15000KT 02/02 A3026 RMK A01 T00240016  RH  095%=      5-min Rain = 0
KJU1 161457Z 15000KT 03/02 A3026 RMK A01 T00250018  RH  095%=      5-min Rain = 0
KJU1 161458Z 00000KT 03/02 A3026 RMK A01 T00260018  RH  094%=      5-min Rain = 0
KJU1 161459Z 13000KT 03/02 A3026 RMK A01 T00260017  RH  094%=      5-min Rain = 0
KJU1 161500Z 00000KT 03/02 A3026 RMK A01 T00270018  RH  094%=      5-min Rain = 0
KJU1 161501Z 00000KT 03/02 A3026 RMK A01 T00290020  RH  094%=      5-min Rain = 0
KJU1 161502Z 14000KT 03/02 A3025 RMK A01 T00300021  RH  094%=      5-min Rain = 0
KJU1 161503Z 15000KT 03/02 A3025 RMK A01 T00330024  RH  094%=      5-min Rain = 0
KJU1 161504Z 00000KT 03/02 A3025 RMK A01 T00340024  RH  093%=      5-min Rain = 0
KJU1 161505Z 00000KT 04/02 A3025 RMK A01 T00350024  RH  092%=      5-min Rain = 0
KJU1 161506Z 00000KT 04/02 A3025 RMK A01 T00350023  RH  092%=      5-min Rain = 0
KJU1 161507Z 13000KT 04/02 A3025 RMK A01 T00370024  RH  092%=      5-min Rain = 0
KJU1 161508Z 15000KT 04/03 A3025 RMK A01 T00390026  RH  091%=      5-min Rain = 0
KJU1 161509Z 15000KT 04/03 A3025 RMK A01 T00410027  RH  091%=      5-min Rain = 0
KJU1 161510Z 15001KT 04/03 A3025 RMK A01 T00420026  RH  089%=      5-min Rain = 0
KJU1 161511Z 16000KT 04/02 A3025 RMK A01 T00430024  RH  088%=      5-min Rain = 0
KJU1 161512Z 13000KT 04/02 A3025 RMK A01 T00440024  RH  087%=      5-min Rain = 0
KJU1 161513Z 12000KT 05/02 A3025 RMK A01 T00450023  RH  086%=      5-min Rain = 0
KJU1 161514Z 00000KT 05/02 A3025 RMK A01 T00460023  RH  085%=      5-min Rain = 0
KJU1 161515Z 00000KT 05/02 A3025 RMK A01 T00470023  RH  084%=      5-min Rain = 0
KJU1 161516Z 00000KT 05/02 A3025 RMK A01 T00480022  RH  084%=      5-min Rain = 0
KJU1 161517Z 00000KT 05/02 A3025 RMK A01 T00480022  RH  083%=      5-min Rain = 0
KJU1 161518Z 00000KT 05/02 A3025 RMK A01 T00480022  RH  084%=      5-min Rain = 0
KJU1 161519Z 00000KT 05/02 A3025 RMK A01 T00490024  RH  084%=      5-min Rain = 0
KJU1 161520Z 00000KT 05/02 A3024 RMK A01 T00490023  RH  083%=      5-min Rain = 0
KJU1 161521Z 00000KT 05/03 A3024 RMK A01 T00510025  RH  083%=      5-min Rain = 0
KJU1 161522Z 00000KT 05/03 A3024 RMK A01 T00530026  RH  083%=      5-min Rain = 0
KJU1 161523Z 00000KT 05/02 A3025 RMK A01 T00530024  RH  082%=      5-min Rain = 0
KJU1 161524Z 00000KT 05/03 A3025 RMK A01 T00530025  RH  082%=      5-min Rain = 0
KJU1 161525Z 00000KT 06/03 A3024 RMK A01 T00550027  RH  082%=      5-min Rain = 0
KJU1 161526Z 00000KT 06/03 A3024 RMK A01 T00560027  RH  082%=      5-min Rain = 0
KJU1 161527Z 00000KT 06/03 A3024 RMK A01 T00570027  RH  081%=      5-min Rain = 0
KJU1 161528Z 12000KT 06/03 A3024 RMK A01 T00570026  RH  081%=      5-min Rain = 0
KJU1 161529Z 00000KT 06/03 A3024 RMK A01 T00560026  RH  081%=      5-min Rain = 0
KJU1 161530Z 00000KT 06/03 A3024 RMK A01 T00570027  RH  081%=      5-min Rain = 0
KJU1 161531Z 34000KT 06/03 A3024 RMK A01 T00580028  RH  081%=      5-min Rain = 0
KJU1 161532Z 34001KT 06/03 A3024 RMK A01 T00580027  RH  081%=      5-min Rain = 0
KJU1 161533Z 34000KT 06/03 A3024 RMK A01 T00570025  RH  080%=      5-min Rain = 0
KJU1 161534Z 00000KT 06/03 A3024 RMK A01 T00570025  RH  080%=      5-min Rain = 0
KJU1 161535Z 00000KT 06/03 A3024 RMK A01 T00570025  RH  080%=      5-min Rain = 0
KJU1 161536Z 00000KT 06/03 A3024 RMK A01 T00590029  RH  081%=      5-min Rain = 0
KJU1 161537Z 00000KT 06/03 A3024 RMK A01 T00610031  RH  081%=      5-min Rain = 0
KJU1 161538Z 35000KT 06/03 A3024 RMK A01 T00610030  RH  080%=      5-min Rain = 0
KJU1 161539Z 34000KT 06/03 A3024 RMK A01 T00620029  RH  080%=      5-min Rain = 0
KJU1 161540Z 02001KT 06/03 A3024 RMK A01 T00620030  RH  080%=      5-min Rain = 0
KJU1 161541Z 02001KT 06/03 A3024 RMK A01 T00630031  RH  080%=      5-min Rain = 0
KJU1 161542Z 02001KT 06/03 A3024 RMK A01 T00640032  RH  080%=      5-min Rain = 0
KJU1 161543Z 03001KT 07/03 A3024 RMK A01 T00650032  RH  079%=      5-min Rain = 0
KJU1 161544Z 02001KT 07/03 A3024 RMK A01 T00650030  RH  078%=      5-min Rain = 0
KJU1 161545Z 34000KT 07/03 A3024 RMK A01 T00650028  RH  077%=      5-min Rain = 0
KJU1 161546Z 00000KT 07/03 A3024 RMK A01 T00660029  RH  077%=      5-min Rain = 0
KJU1 161547Z 05000KT 07/03 A3024 RMK A01 T00680031  RH  077%=      5-min Rain = 0
KJU1 161548Z 05000KT 07/03 A3024 RMK A01 T00700029  RH  076%=      5-min Rain = 0
KJU1 161549Z 02000KT 07/03 A3024 RMK A01 T00690029  RH  075%=      5-min Rain = 0
KJU1 161550Z 00000KT 07/03 A3024 RMK A01 T00710030  RH  075%=      5-min Rain = 0
KJU1 161551Z 03000KT 07/03 A3024 RMK A01 T00720031  RH  075%=      5-min Rain = 0
KJU1 161552Z 08000KT 07/03 A3024 RMK A01 T00740031  RH  074%=      5-min Rain = 0
KJU1 161553Z 11000KT 08/03 A3024 RMK A01 T00750030  RH  073%=      5-min Rain = 0
KJU1 161554Z 00000KT 08/03 A3024 RMK A01 T00760030  RH  073%=      5-min Rain = 0
KJU1 161555Z 35000KT 08/03 A3024 RMK A01 T00770031  RH  073%=      5-min Rain = 0
KJU1 161556Z 01000KT 08/03 A3024 RMK A01 T00770031  RH  073%=      5-min Rain = 0
KJU1 161557Z 04001KT 08/03 A3024 RMK A01 T00770030  RH  072%=      5-min Rain = 0
KJU1 161558Z 05001KT 08/03 A3024 RMK A01 T00770029  RH  072%=      5-min Rain = 0
KJU1 161559Z 05000KT 08/03 A3024 RMK A01 T00770029  RH  072%=      5-min Rain = 0
KJU1 161600Z 04001KT 08/03 A3024 RMK A01 T00770028  RH  071%=      5-min Rain = 0
KJU1 161601Z 05002KT 08/03 A3024 RMK A01 T00780032  RH  072%=      5-min Rain = 0
KJU1 161602Z 04002KT 08/03 A3024 RMK A01 T00790030  RH  071%=      5-min Rain = 0
KJU1 161603Z 03001KT 08/03 A3024 RMK A01 T00790030  RH  071%=      5-min Rain = 0
KJU1 161604Z 03000KT 08/03 A3024 RMK A01 T00800030  RH  071%=      5-min Rain = 0
KJU1 161605Z 06002KT 08/03 A3024 RMK A01 T00810032  RH  071%=      5-min Rain = 0
KJU1 161606Z 05001KT 08/03 A3024 RMK A01 T00820031  RH  070%=      5-min Rain = 0
KJU1 161607Z 01001KT 08/03 A3024 RMK A01 T00820031  RH  070%=      5-min Rain = 0
KJU1 161608Z 06001KT 08/03 A3024 RMK A01 T00830031  RH  070%=      5-min Rain = 0
KJU1 161609Z 05001KT 08/03 A3024 RMK A01 T00840031  RH  069%=      5-min Rain = 0
KJU1 161610Z 03000KT 09/03 A3024 RMK A01 T00860031  RH  069%=      5-min Rain = 0
KJU1 161611Z 04001KT 09/03 A3024 RMK A01 T00860029  RH  068%=      5-min Rain = 0
KJU1 161612Z 06000KT 09/03 A3024 RMK A01 T00870029  RH  067%=      5-min Rain = 0
KJU1 161613Z 05000KT 09/03 A3024 RMK A01 T00890033  RH  068%=      5-min Rain = 0
KJU1 161614Z 02001KT 09/03 A3024 RMK A01 T00910034  RH  068%=      5-min Rain = 0
KJU1 161615Z 03001KT 09/03 A3023 RMK A01 T00910032  RH  066%=      5-min Rain = 0
KJU1 161616Z 04002KT 09/03 A3023 RMK A01 T00910031  RH  066%=      5-min Rain = 0
KJU1 161617Z 05002KT 09/03 A3023 RMK A01 T00920033  RH  066%=      5-min Rain = 0
KJU1 161618Z 05001KT 09/03 A3023 RMK A01 T00930031  RH  065%=      5-min Rain = 0
KJU1 161619Z 02002KT 09/03 A3023 RMK A01 T00940033  RH  066%=      5-min Rain = 0
KJU1 161620Z 04001KT 10/03 A3023 RMK A01 T00950033  RH  065%=      5-min Rain = 0
KJU1 161621Z 02001KT 10/04 A3023 RMK A01 T00970036  RH  066%=      5-min Rain = 0
KJU1 161622Z 03001KT 10/04 A3023 RMK A01 T01000038  RH  065%=      5-min Rain = 0
KJU1 161623Z 05002KT 10/04 A3023 RMK A01 T01010035  RH  064%=      5-min Rain = 0
KJU1 161624Z 04002KT 10/03 A3023 RMK A01 T01010034  RH  063%=      5-min Rain = 0
KJU1 161625Z 06001KT 10/04 A3023 RMK A01 T01020037  RH  064%=      5-min Rain = 0
KJU1 161626Z 04001KT 10/04 A3023 RMK A01 T01040037  RH  063%=      5-min Rain = 0
KJU1 161627Z 05001KT 11/04 A3023 RMK A01 T01060037  RH  063%=      5-min Rain = 0
KJU1 161628Z 02002KT 11/04 A3023 RMK A01 T01070037  RH  062%=      5-min Rain = 0
KJU1 161629Z 35002KT 11/04 A3023 RMK A01 T01070037  RH  062%=      5-min Rain = 0
KJU1 161630Z 33001KT 11/04 A3023 RMK A01 T01070035  RH  061%=      5-min Rain = 0
KJU1 161631Z 35001KT 11/03 A3023 RMK A01 T01070034  RH  061%=      5-min Rain = 0
KJU1 161632Z 31000KT 11/04 A3023 RMK A01 T01070037  RH  062%=      5-min Rain = 0
KJU1 161633Z 01001KT 11/04 A3023 RMK A01 T01090036  RH  061%=      5-min Rain = 0
KJU1 161634Z 01002KT 11/04 A3022 RMK A01 T01110038  RH  061%=      5-min Rain = 0
KJU1 161635Z 36002KT 11/04 A3022 RMK A01 T01120036  RH  060%=      5-min Rain = 0
KJU1 161636Z 01001KT 11/04 A3022 RMK A01 T01120037  RH  060%=      5-min Rain = 0
KJU1 161637Z 02001KT 11/04 A3022 RMK A01 T01130038  RH  060%=      5-min Rain = 0
KJU1 161638Z 35000KT 11/04 A3022 RMK A01 T01140037  RH  059%=      5-min Rain = 0
KJU1 161639Z 02001KT 12/04 A3022 RMK A01 T01150039  RH  060%=      5-min Rain = 0
KJU1 161640Z 36001KT 12/04 A3022 RMK A01 T01170040  RH  059%=      5-min Rain = 0
KJU1 161641Z 35001KT 12/04 A3022 RMK A01 T01180041  RH  059%=      5-min Rain = 0
KJU1 161642Z 32001KT 12/04 A3022 RMK A01 T01190041  RH  059%=      5-min Rain = 0
KJU1 161643Z 03000KT 12/04 A3022 RMK A01 T01210043  RH  059%=      5-min Rain = 0
KJU1 161644Z 01001KT 12/04 A3022 RMK A01 T01240044  RH  058%=      5-min Rain = 0
KJU1 161645Z 30002KT 13/04 A3022 RMK A01 T01260043  RH  057%=      5-min Rain = 0
KJU1 161646Z 29002KT 13/04 A3022 RMK A01 T01280040  RH  055%=      5-min Rain = 0
KJU1 161647Z 28002KT 13/04 A3021 RMK A01 T01300039  RH  054%=      5-min Rain = 0
KJU1 161648Z 30002KT 13/04 A3021 RMK A01 T01290036  RH  053%=      5-min Rain = 0
KJU1 161649Z 24001KT 13/04 A3021 RMK A01 T01300040  RH  054%=      5-min Rain = 0
KJU1 161650Z 22003KT 13/04 A3021 RMK A01 T01330043  RH  055%=      5-min Rain = 0
KJU1 161651Z 18002KT 13/04 A3021 RMK A01 T01340042  RH  054%=      5-min Rain = 0
KJU1 161652Z 14004KT 14/04 A3021 RMK A01 T01360044  RH  054%=      5-min Rain = 0
KJU1 161653Z 17008KT 14/03 A3021 RMK A01 T01370033  RH  049%=      5-min Rain = 0
KJU1 161654Z 20008KT 14/03 A3021 RMK A01 T01400030  RH  047%=      5-min Rain = 0
KJU1 161655Z 20007KT 14/02 A3021 RMK A01 T01430023  RH  044%=      5-min Rain = 0
KJU1 161656Z 19009KT 14/02 A3021 RMK A01 T01440022  RH  044%=      5-min Rain = 0
KJU1 161657Z 19008KT 14/02 A3021 RMK A01 T01440019  RH  043%=      5-min Rain = 0
KJU1 161658Z 19010KT 14/02 A3021 RMK A01 T01440018  RH  043%=      5-min Rain = 0
KJU1 161659Z 19008KT 14/02 A3021 RMK A01 T01440019  RH  043%=      5-min Rain = 0
KJU1 161700Z 20007KT 14/02 A3021 RMK A01 T01440021  RH  043%=      5-min Rain = 0
KJU1 161701Z 19008KT 15/02 A3021 RMK A01 T01450019  RH  042%=      5-min Rain = 0
KJU1 161702Z 19005G10KT 15/02 A3021 RMK A01 T01450020  RH  043%=      5-min Rain = 0
KJU1 161703Z 19008KT 15/02 A302 RMK A01 T01470021  RH  043%=      5-min Rain = 0
KJU1 161704Z 19007KT 15/02 A302 RMK A01 T01490021  RH  042%=      5-min Rain = 0
KJU1 161705Z 18008KT 15/02 A302 RMK A01 T01490021  RH  042%=      5-min Rain = 0
KJU1 161706Z 18008KT 15/02 A302 RMK A01 T01490023  RH  043%=      5-min Rain = 0
KJU1 161707Z 19008KT 15/02 A302 RMK A01 T01490023  RH  043%=      5-min Rain = 0
KJU1 161708Z 18007KT 15/02 A302 RMK A01 T01480021  RH  042%=      5-min Rain = 0
KJU1 161709Z 19006KT 15/02 A302 RMK A01 T01470023  RH  043%=      5-min Rain = 0
KJU1 161710Z 18007KT 15/02 A302 RMK A01 T01480023  RH  043%=      5-min Rain = 0
KJU1 161711Z 18009KT 15/02 A302 RMK A01 T01500022  RH  042%=      5-min Rain = 0
KJU1 161712Z 18008KT 15/02 A302 RMK A01 T01500020  RH  041%=      5-min Rain = 0
KJU1 161713Z 20008KT 15/02 A302 RMK A01 T01490021  RH  042%=      5-min Rain = 0
KJU1 161714Z 21007KT 15/02 A302 RMK A01 T01490021  RH  042%=      5-min Rain = 0
KJU1 161715Z 20006KT 15/02 A302 RMK A01 T01480022  RH  042%=      5-min Rain = 0
KJU1 161716Z 20006KT 15/02 A302 RMK A01 T01480021  RH  042%=      5-min Rain = 0
KJU1 161717Z 17007KT 15/02 A302 RMK A01 T01490020  RH  042%=      5-min Rain = 0
KJU1 161718Z 17007KT 15/02 A3019 RMK A01 T01480021  RH  042%=      5-min Rain = 0
KJU1 161719Z 19008KT 15/02 A3019 RMK A01 T01500024  RH  043%=      5-min Rain = 0
KJU1 161720Z 21009KT 15/02 A3019 RMK A01 T01520024  RH  042%=      5-min Rain = 0
KJU1 161721Z 20007KT 15/02 A3019 RMK A01 T01500023  RH  042%=      5-min Rain = 0
KJU1 161722Z 20005KT 15/02 A3019 RMK A01 T01490024  RH  043%=      5-min Rain = 0
KJU1 161723Z 19007KT 15/03 A3019 RMK A01 T01500025  RH  043%=      5-min Rain = 0
KJU1 161724Z 18008KT 15/02 A3019 RMK A01 T01510021  RH  041%=      5-min Rain = 0
KJU1 161725Z 19008KT 15/02 A3019 RMK A01 T01500019  RH  041%=      5-min Rain = 0
KJU1 161726Z 18008KT 15/02 A3019 RMK A01 T01510020  RH  041%=      5-min Rain = 0
KJU1 161727Z 17008KT 15/02 A3019 RMK A01 T01520019  RH  040%=      5-min Rain = 0
KJU1 161728Z 16008KT 15/02 A3019 RMK A01 T01520019  RH  041%=      5-min Rain = 0
KJU1 161729Z 18009KT 15/02 A3019 RMK A01 T01510018  RH  041%=      5-min Rain = 0
KJU1 161730Z 19009KT 15/02 A3019 RMK A01 T01510022  RH  042%=      5-min Rain = 0
KJU1 161731Z 21007KT 15/02 A3019 RMK A01 T01530022  RH  041%=      5-min Rain = 0
KJU1 161732Z 20007KT 15/02 A3019 RMK A01 T01530019  RH  040%=      5-min Rain = 0
KJU1 161733Z 21007KT 15/02 A3019 RMK A01 T01530018  RH  040%=      5-min Rain = 0
KJU1 161734Z 21007KT 15/02 A3018 RMK A01 T01520019  RH  041%=      5-min Rain = 0
KJU1 161735Z 21008KT 15/02 A3018 RMK A01 T01520018  RH  040%=      5-min Rain = 0
KJU1 161736Z 21007KT 15/02 A3018 RMK A01 T01520018  RH  040%=      5-min Rain = 0
KJU1 161737Z 21006KT 15/02 A3018 RMK A01 T01510018  RH  041%=      5-min Rain = 0
KJU1 161738Z 21005KT 15/02 A3018 RMK A01 T01500018  RH  041%=      5-min Rain = 0
KJU1 161739Z 19004KT 15/02 A3018 RMK A01 T01520022  RH  042%=      5-min Rain = 0
KJU1 161740Z 18004KT 16/03 A3018 RMK A01 T01550025  RH  042%=      5-min Rain = 0
KJU1 161741Z 17006KT 16/03 A3018 RMK A01 T01560025  RH  041%=      5-min Rain = 0
KJU1 161742Z 17008KT 16/02 A3018 RMK A01 T01570021  RH  040%=      5-min Rain = 0
KJU1 161743Z 17008KT 16/02 A3018 RMK A01 T01560020  RH  040%=      5-min Rain = 0
KJU1 161744Z 20009KT 15/02 A3018 RMK A01 T01540020  RH  040%=      5-min Rain = 0
KJU1 161745Z 21007KT 15/02 A3018 RMK A01 T01530016  RH  039%=      5-min Rain = 0
KJU1 161746Z 20005KT 15/02 A3018 RMK A01 T01520018  RH  040%=      5-min Rain = 0
KJU1 161747Z 17007KT 15/02 A3018 RMK A01 T01540021  RH  041%=      5-min Rain = 0
KJU1 161748Z 18006KT 16/02 A3017 RMK A01 T01550017  RH  039%=      5-min Rain = 0
KJU1 161749Z 18008KT 15/02 A3017 RMK A01 T01540020  RH  040%=      5-min Rain = 0
KJU1 161750Z 19006KT 16/02 A3017 RMK A01 T01550022  RH  041%=      5-min Rain = 0
KJU1 161751Z 19007KT 16/02 A3017 RMK A01 T01560022  RH  041%=      5-min Rain = 0
KJU1 161752Z 19008KT 16/02 A3017 RMK A01 T01560022  RH  041%=      5-min Rain = 0
KJU1 161753Z 18007KT 16/02 A3017 RMK A01 T01550021  RH  040%=      5-min Rain = 0
KJU1 161754Z 18007KT 16/02 A3017 RMK A01 T01550024  RH  041%=      5-min Rain = 0
KJU1 161755Z 17005KT 16/02 A3017 RMK A01 T01560020  RH  040%=      5-min Rain = 0
KJU1 161756Z 19007KT 16/02 A3017 RMK A01 T01550022  RH  041%=      5-min Rain = 0
KJU1 161757Z 18008KT 16/02 A3017 RMK A01 T01550020  RH  040%=      5-min Rain = 0
KJU1 161758Z 18008KT 15/02 A3017 RMK A01 T01540020  RH  040%=      5-min Rain = 0
KJU1 161759Z 19008KT 15/02 A3017 RMK A01 T01540022  RH  041%=      5-min Rain = 0
KJU1 161800Z 20006KT 15/02 A3017 RMK A01 T01540021  RH  040%=      5-min Rain = 0
KJU1 161801Z 18009KT 16/02 A3017 RMK A01 T01550022  RH  041%=      5-min Rain = 0
KJU1 161802Z 20006KT 16/02 A3017 RMK A01 T01550020  RH  040%=      5-min Rain = 0
KJU1 161803Z 22008KT 16/02 A3017 RMK A01 T01550017  RH  039%=      5-min Rain = 0
KJU1 161804Z 22009KT 15/02 A3017 RMK A01 T01540017  RH  040%=      5-min Rain = 0
KJU1 161805Z 22007KT 15/02 A3016 RMK A01 T01530017  RH  040%=      5-min Rain = 0
KJU1 161806Z 21007KT 15/02 A3016 RMK A01 T01540020  RH  040%=      5-min Rain = 0
KJU1 161807Z 21007KT 16/02 A3016 RMK A01 T01560020  RH  040%=      5-min Rain = 0
KJU1 161808Z 22009KT 16/02 A3016 RMK A01 T01570023  RH  040%=      5-min Rain = 0
KJU1 161809Z 20007KT 16/02 A3016 RMK A01 T01580022  RH  040%=      5-min Rain = 0
KJU1 161810Z 20008KT 16/03 A3016 RMK A01 T01590026  RH  041%=      5-min Rain = 0
KJU1 161811Z 19008KT 16/02 A3016 RMK A01 T01590022  RH  040%=      5-min Rain = 0
KJU1 161812Z 21007KT 16/02 A3016 RMK A01 T01580023  RH  040%=      5-min Rain = 0
KJU1 161813Z 22006KT 16/02 A3016 RMK A01 T01580021  RH  040%=      5-min Rain = 0
KJU1 161814Z 22006KT 16/02 A3016 RMK A01 T01570021  RH  040%=      5-min Rain = 0
KJU1 161815Z 19006KT 16/03 A3016 RMK A01 T01590025  RH  040%=      5-min Rain = 0
KJU1 161816Z 18010KT 16/03 A3016 RMK A01 T01620026  RH  040%=      5-min Rain = 0
KJU1 161817Z 18010KT 16/02 A3016 RMK A01 T01610021  RH  039%=      5-min Rain = 0
KJU1 161818Z 19008KT 16/02 A3016 RMK A01 T01590019  RH  039%=      5-min Rain = 0
KJU1 161819Z 18011KT 16/02 A3016 RMK A01 T01590020  RH  039%=      5-min Rain = 0
KJU1 161820Z 18010KT 16/02 A3016 RMK A01 T01590017  RH  038%=      5-min Rain = 0
KJU1 161821Z 18009KT 16/02 A3016 RMK A01 T01590017  RH  038%=      5-min Rain = 0
KJU1 161822Z 18009KT 16/02 A3016 RMK A01 T01580018  RH  039%=      5-min Rain = 0
KJU1 161823Z 18009KT 16/02 A3016 RMK A01 T01580016  RH  038%=      5-min Rain = 0
KJU1 161824Z 17009KT 16/02 A3016 RMK A01 T01580019  RH  039%=      5-min Rain = 0
KJU1 161825Z 17007KT 16/02 A3016 RMK A01 T01590019  RH  039%=      5-min Rain = 0
KJU1 161826Z 17009KT 16/02 A3015 RMK A01 T01600020  RH  039%=      5-min Rain = 0
KJU1 161827Z 17010KT 16/02 A3015 RMK A01 T01610020  RH  038%=      5-min Rain = 0
KJU1 161828Z 17009KT 16/02 A3015 RMK A01 T01610019  RH  038%=      5-min Rain = 0
KJU1 161829Z 18008KT 16/02 A3015 RMK A01 T01610021  RH  039%=      5-min Rain = 0
KJU1 161830Z 19007KT 16/02 A3015 RMK A01 T01610020  RH  039%=      5-min Rain = 0
KJU1 161831Z 18007KT 16/02 A3015 RMK A01 T01620022  RH  039%=      5-min Rain = 0
KJU1 161832Z 18009KT 16/02 A3015 RMK A01 T01640024  RH  039%=      5-min Rain = 0
KJU1 161833Z 19008KT 17/02 A3015 RMK A01 T01660024  RH  038%=      5-min Rain = 0
KJU1 161834Z 18008KT 17/02 A3015 RMK A01 T01660020  RH  037%=      5-min Rain = 0
KJU1 161835Z 17008KT 17/02 A3015 RMK A01 T01650019  RH  037%=      5-min Rain = 0
KJU1 161836Z 18006KT 16/02 A3015 RMK A01 T01640019  RH  038%=      5-min Rain = 0
KJU1 161837Z 21006KT 17/03 A3015 RMK A01 T01660025  RH  039%=      5-min Rain = 0
KJU1 161838Z 21007KT 17/02 A3015 RMK A01 T01690024  RH  038%=      5-min Rain = 0
KJU1 161839Z 20009KT 17/02 A3015 RMK A01 T01700021  RH  037%=      5-min Rain = 0
KJU1 161840Z 17007KT 17/02 A3015 RMK A01 T01670018  RH  037%=      5-min Rain = 0
KJU1 161841Z 18010KT 17/02 A3015 RMK A01 T01690022  RH  037%=      5-min Rain = 0
KJU1 161842Z 18010KT 17/02 A3014 RMK A01 T01700020  RH  037%=      5-min Rain = 0
KJU1 161843Z 16010KT 17/02 A3014 RMK A01 T01690018  RH  036%=      5-min Rain = 0
KJU1 161844Z 17008KT 17/02 A3014 RMK A01 T01680020  RH  037%=      5-min Rain = 0
KJU1 161845Z 18007KT 17/02 A3014 RMK A01 T01700018  RH  036%=      5-min Rain = 0
KJU1 161846Z 20007KT 17/02 A3014 RMK A01 T01700018  RH  036%=      5-min Rain = 0
KJU1 161847Z 20010KT 17/02 A3014 RMK A01 T01700019  RH  036%=      5-min Rain = 0
KJU1 161848Z 18010KT 17/02 A3014 RMK A01 T01700020  RH  036%=      5-min Rain = 0
KJU1 161849Z 17009KT 17/02 A3014 RMK A01 T01700020  RH  037%=      5-min Rain = 0
KJU1 161850Z 17005KT 17/02 A3014 RMK A01 T01710024  RH  037%=      5-min Rain = 0
KJU1 161851Z 19007KT 18/03 A3014 RMK A01 T01750028  RH  037%=      5-min Rain = 0
KJU1 161852Z 19008KT 18/02 A3014 RMK A01 T01750023  RH  036%=      5-min Rain = 0
KJU1 161853Z 19007KT 17/02 A3014 RMK A01 T01740024  RH  037%=      5-min Rain = 0
KJU1 161854Z 19008G15KT 17/02 A3014 RMK A01 T01730022  RH  036%=      5-min Rain = 0
KJU1 161855Z 19010KT 17/02 A3014 RMK A01 T01730022  RH  036%=      5-min Rain = 0
KJU1 161856Z 20008KT 17/02 A3014 RMK A01 T01730020  RH  036%=      5-min Rain = 0
KJU1 161857Z 21009KT 18/02 A3014 RMK A01 T01750023  RH  036%=      5-min Rain = 0
KJU1 161858Z 22008KT 18/02 A3014 RMK A01 T01770023  RH  036%=      5-min Rain = 0
KJU1 161859Z 20007KT 18/02 A3014 RMK A01 T01760021  RH  035%=      5-min Rain = 0
KJU1 161900Z 20008KT 18/02 A3013 RMK A01 T01760021  RH  035%=      5-min Rain = 0
KJU1 161901Z 19009KT 18/02 A3013 RMK A01 T01760021  RH  035%=      5-min Rain = 0
KJU1 161902Z 19005KT 17/02 A3013 RMK A01 T01740015  RH  034%=      5-min Rain = 0
KJU1 161903Z 17007KT 17/02 A3013 RMK A01 T01730017  RH  035%=      5-min Rain = 0
KJU1 161904Z 18010KT 18/02 A3013 RMK A01 T01760022  RH  036%=      5-min Rain = 0
KJU1 161905Z 21007KT 18/02 A3013 RMK A01 T01770021  RH  035%=      5-min Rain = 0
KJU1 161906Z 21008KT 18/02 A3013 RMK A01 T01770022  RH  035%=      5-min Rain = 0
KJU1 161907Z 20010KT 18/02 A3013 RMK A01 T01780021  RH  035%=      5-min Rain = 0
KJU1 161908Z 19008KT 18/02 A3013 RMK A01 T01780022  RH  035%=      5-min Rain = 0
KJU1 161909Z 20008KT 18/02 A3013 RMK A01 T01780023  RH  035%=      5-min Rain = 0
KJU1 161910Z 19006KT 18/02 A3013 RMK A01 T01790021  RH  035%=      5-min Rain = 0
KJU1 161911Z 19007KT 18/02 A3013 RMK A01 T01780022  RH  035%=      5-min Rain = 0
KJU1 161912Z 20008KT 18/02 A3013 RMK A01 T01780021  RH  035%=      5-min Rain = 0
KJU1 161913Z 22007KT 18/03 A3012 RMK A01 T01790025  RH  036%=      5-min Rain = 0
KJU1 161914Z 20009KT 18/03 A3012 RMK A01 T01800025  RH  035%=      5-min Rain = 0
KJU1 161915Z 20009G14KT 18/03 A3012 RMK A01 T01810026  RH  035%=      5-min Rain = 0
KJU1 161916Z 20010KT 18/03 A3012 RMK A01 T01810025  RH  035%=      5-min Rain = 0
KJU1 161917Z 21009KT 18/02 A3012 RMK A01 T01810024  RH  035%=      5-min Rain = 0
KJU1 161918Z 20008KT 18/02 A3012 RMK A01 T01790022  RH  035%=      5-min Rain = 0
KJU1 161919Z 20006KT 18/02 A3012 RMK A01 T01780023  RH  035%=      5-min Rain = 0
KJU1 161920Z 19006KT 18/02 A3012 RMK A01 T01770024  RH  036%=      5-min Rain = 0
KJU1 161921Z 21004KT 18/02 A3012 RMK A01 T01780024  RH  036%=      5-min Rain = 0
KJU1 161922Z 21005KT 18/02 A3012 RMK A01 T01780022  RH  035%=      5-min Rain = 0
KJU1 161923Z 17008KT 18/03 A3012 RMK A01 T01790026  RH  036%=      5-min Rain = 0
KJU1 161924Z 19011KT 18/03 A3012 RMK A01 T01810027  RH  036%=      5-min Rain = 0
KJU1 161925Z 19009KT 18/03 A3012 RMK A01 T01810025  RH  035%=      5-min Rain = 0
KJU1 161926Z 19011KT 18/02 A3012 RMK A01 T01790024  RH  035%=      5-min Rain = 0
KJU1 161927Z 18007KT 18/02 A3012 RMK A01 T01780023  RH  035%=      5-min Rain = 0
KJU1 161928Z 17006KT 18/02 A3011 RMK A01 T01780023  RH  035%=      5-min Rain = 0
KJU1 161929Z 21005KT 18/03 A3011 RMK A01 T01800028  RH  036%=      5-min Rain = 0
KJU1 161930Z 20007KT 18/03 A3011 RMK A01 T01810027  RH  036%=      5-min Rain = 0
KJU1 161931Z 20007KT 18/03 A3011 RMK A01 T01820029  RH  036%=      5-min Rain = 0
KJU1 161932Z 19006KT 18/03 A3011 RMK A01 T01810028  RH  036%=      5-min Rain = 0
KJU1 161933Z 19007KT 18/03 A3011 RMK A01 T01810029  RH  036%=      5-min Rain = 0
KJU1 161934Z 18009KT 18/03 A3011 RMK A01 T01820030  RH  036%=      5-min Rain = 0
KJU1 161935Z 17010KT 18/03 A3011 RMK A01 T01830030  RH  036%=      5-min Rain = 0
KJU1 161936Z 17010KT 18/03 A3011 RMK A01 T01820028  RH  036%=      5-min Rain = 0
KJU1 161937Z 16007KT 18/03 A301 RMK A01 T01820029  RH  036%=      5-min Rain = 0
KJU1 161938Z 17009KT 18/03 A301 RMK A01 T01830031  RH  036%=      5-min Rain = 0
KJU1 161939Z 18010KT 18/03 A301 RMK A01 T01840030  RH  036%=      5-min Rain = 0
KJU1 161940Z 19010KT 19/03 A301 RMK A01 T01850031  RH  036%=      5-min Rain = 0
KJU1 161941Z 19010KT 19/03 A301 RMK A01 T01850028  RH  035%=      5-min Rain = 0
KJU1 161942Z 20011KT 18/03 A301 RMK A01 T01820025  RH  035%=      5-min Rain = 0
KJU1 161943Z 20009KT 18/02 A301 RMK A01 T01800024  RH  035%=      5-min Rain = 0
KJU1 161944Z 19008KT 18/03 A301 RMK A01 T01780025  RH  036%=      5-min Rain = 0
KJU1 161945Z 18009KT 18/03 A301 RMK A01 T01780025  RH  036%=      5-min Rain = 0
KJU1 161946Z 18008KT 18/03 A301 RMK A01 T01780027  RH  036%=      5-min Rain = 0
KJU1 161947Z 19007KT 18/03 A301 RMK A01 T01800029  RH  037%=      5-min Rain = 0
KJU1 161948Z 21009KT 18/03 A301 RMK A01 T01810029  RH  036%=      5-min Rain = 0
KJU1 161949Z 21010KT 18/03 A301 RMK A01 T01810027  RH  036%=      5-min Rain = 0
KJU1 161950Z 21009KT 18/03 A301 RMK A01 T01800027  RH  036%=      5-min Rain = 0
KJU1 161951Z 20011KT 18/03 A301 RMK A01 T01800027  RH  036%=      5-min Rain = 0
KJU1 161952Z 20010KT 18/03 A301 RMK A01 T01780026  RH  036%=      5-min Rain = 0
KJU1 161953Z 20007KT 18/03 A301 RMK A01 T01780027  RH  036%=      5-min Rain = 0
KJU1 161954Z 21006KT 18/03 A301 RMK A01 T01790031  RH  037%=      5-min Rain = 0
KJU1 161955Z 20006KT 18/03 A301 RMK A01 T01800031  RH  037%=      5-min Rain = 0
KJU1 161956Z 20007KT 18/03 A301 RMK A01 T01820033  RH  037%=      5-min Rain = 0
KJU1 161957Z 20008KT 18/03 A301 RMK A01 T01820032  RH  037%=      5-min Rain = 0
KJU1 161958Z 19007KT 18/03 A301 RMK A01 T01820031  RH  037%=      5-min Rain = 0
KJU1 161959Z 19006KT 18/03 A301 RMK A01 T01810030  RH  037%=      5-min Rain = 0
KJU1 162000Z 21005KT 18/03 A301 RMK A01 T01820034  RH  037%=      5-min Rain = 0
KJU1 162001Z 21008KT 18/03 A3009 RMK A01 T01840031  RH  036%=      5-min Rain = 0
KJU1 162002Z 23005G11KT 19/03 A3009 RMK A01 T01850031  RH  036%=      5-min Rain = 0
KJU1 162003Z 23008KT 19/03 A3009 RMK A01 T01860031  RH  036%=      5-min Rain = 0
KJU1 162004Z 21007KT 19/03 A3009 RMK A01 T01860029  RH  035%=      5-min Rain = 0
KJU1 162005Z 22008KT 19/03 A3009 RMK A01 T01860027  RH  035%=      5-min Rain = 0
KJU1 162006Z 22010KT 19/03 A3009 RMK A01 T01860026  RH  034%=      5-min Rain = 0
KJU1 162007Z 21008KT 19/03 A3009 RMK A01 T01870025  RH  034%=      5-min Rain = 0
KJU1 162008Z 19009KT 19/02 A3009 RMK A01 T01860024  RH  034%=      5-min Rain = 0
KJU1 162009Z 18009KT 19/03 A3009 RMK A01 T01860025  RH  034%=      5-min Rain = 0
KJU1 162010Z 19007KT 19/03 A3009 RMK A01 T01860028  RH  035%=      5-min Rain = 0
KJU1 162011Z 19010KT 19/03 A3009 RMK A01 T01880030  RH  035%=      5-min Rain = 0
KJU1 162012Z 21008KT 19/03 A3009 RMK A01 T01880027  RH  034%=      5-min Rain = 0
KJU1 162013Z 20008KT 19/02 A3009 RMK A01 T01880024  RH  034%=      5-min Rain = 0
KJU1 162014Z 21011KT 19/02 A3009 RMK A01 T01870023  RH  033%=      5-min Rain = 0
KJU1 162015Z 21008KT 19/02 A3009 RMK A01 T01860020  RH  033%=      5-min Rain = 0
KJU1 162016Z 20007KT 19/02 A3008 RMK A01 T01860020  RH  033%=      5-min Rain = 0
KJU1 162017Z 20007KT 19/02 A3008 RMK A01 T01860023  RH  034%=      5-min Rain = 0
KJU1 162018Z 19009KT 19/03 A3008 RMK A01 T01890025  RH  034%=      5-min Rain = 0
KJU1 162019Z 19011KT 19/03 A3008 RMK A01 T01890026  RH  034%=      5-min Rain = 0
KJU1 162020Z 20008KT 19/03 A3008 RMK A01 T01890025  RH  034%=      5-min Rain = 0
KJU1 162021Z 18009KT 19/02 A3008 RMK A01 T01880022  RH  033%=      5-min Rain = 0
KJU1 162022Z 19009KT 19/02 A3008 RMK A01 T01860023  RH  034%=      5-min Rain = 0
KJU1 162023Z 20009KT 19/02 A3008 RMK A01 T01850023  RH  034%=      5-min Rain = 0
KJU1 162024Z 20009KT 19/02 A3008 RMK A01 T01850021  RH  033%=      5-min Rain = 0
KJU1 162025Z 19012KT 19/02 A3008 RMK A01 T01850020  RH  033%=      5-min Rain = 0
KJU1 162026Z 19011KT 18/02 A3008 RMK A01 T01830019  RH  033%=      5-min Rain = 0
KJU1 162027Z 20008KT 18/02 A3008 RMK A01 T01830020  RH  034%=      5-min Rain = 0
KJU1 162028Z 20010KT 18/02 A3008 RMK A01 T01840022  RH  034%=      5-min Rain = 0
KJU1 162029Z 20010KT 18/02 A3008 RMK A01 T01840022  RH  034%=      5-min Rain = 0
KJU1 162030Z 19010KT 18/02 A3008 RMK A01 T01840022  RH  034%=      5-min Rain = 0
KJU1 162031Z 18010KT 18/02 A3008 RMK A01 T01840023  RH  034%=      5-min Rain = 0
KJU1 162032Z 18012KT 18/02 A3008 RMK A01 T01840023  RH  034%=      5-min Rain = 0
KJU1 162033Z 18011KT 18/02 A3008 RMK A01 T01830021  RH  034%=      5-min Rain = 0
KJU1 162034Z 18011KT 18/02 A3008 RMK A01 T01820021  RH  034%=      5-min Rain = 0
KJU1 162035Z 18009KT 18/02 A3008 RMK A01 T01810020  RH  034%=      5-min Rain = 0
KJU1 162036Z 18009KT 18/02 A3008 RMK A01 T01810019  RH  034%=      5-min Rain = 0
KJU1 162037Z 16008KT 18/02 A3008 RMK A01 T01810021  RH  034%=      5-min Rain = 0
KJU1 162038Z 17008KT 18/02 A3008 RMK A01 T01820024  RH  035%=      5-min Rain = 0
KJU1 162039Z 19008KT 18/03 A3008 RMK A01 T01840025  RH  035%=      5-min Rain = 0
KJU1 162040Z 19009KT 19/03 A3008 RMK A01 T01850025  RH  034%=      5-min Rain = 0
KJU1 162041Z 19009KT 18/03 A3008 RMK A01 T01840027  RH  035%=      5-min Rain = 0
KJU1 162042Z 19011KT 18/03 A3008 RMK A01 T01840027  RH  035%=      5-min Rain = 0
KJU1 162043Z 19008KT 18/03 A3008 RMK A01 T01830028  RH  035%=      5-min Rain = 0
KJU1 162044Z 19009KT 18/03 A3008 RMK A01 T01830029  RH  036%=      5-min Rain = 0
KJU1 162045Z 19010KT 18/03 A3008 RMK A01 T01840029  RH  036%=      5-min Rain = 0
KJU1 162046Z 19009KT 18/03 A3008 RMK A01 T01830029  RH  036%=      5-min Rain = 0
KJU1 162047Z 20007KT 18/03 A3008 RMK A01 T01820029  RH  036%=      5-min Rain = 0
KJU1 162048Z 20009KT 18/03 A3008 RMK A01 T01820031  RH  036%=      5-min Rain = 0
KJU1 162049Z 22008KT 18/03 A3008 RMK A01 T01830030  RH  036%=      5-min Rain = 0
KJU1 162050Z 20007KT 18/03 A3008 RMK A01 T01830030  RH  036%=      5-min Rain = 0
KJU1 162051Z 22008KT 18/03 A3008 RMK A01 T01830030  RH  036%=      5-min Rain = 0
KJU1 162052Z 21008KT 18/03 A3008 RMK A01 T01830029  RH  036%=      5-min Rain = 0
KJU1 162053Z 20009KT 18/03 A3008 RMK A01 T01830031  RH  036%=      5-min Rain = 0
KJU1 162054Z 20010KT 18/03 A3008 RMK A01 T01830029  RH  036%=      5-min Rain = 0
KJU1 162055Z 20008KT 18/03 A3008 RMK A01 T01810026  RH  035%=      5-min Rain = 0
KJU1 162056Z 21008KT 18/03 A3008 RMK A01 T01800028  RH  036%=      5-min Rain = 0
KJU1 162057Z 21008KT 18/03 A3008 RMK A01 T01810029  RH  036%=      5-min Rain = 0
KJU1 162058Z 19009KT 18/03 A3008 RMK A01 T01810028  RH  036%=      5-min Rain = 0
KJU1 162059Z 20006KT 18/03 A3008 RMK A01 T01800030  RH  037%=      5-min Rain = 0
KJU1 162100Z 19009KT 18/03 A3008 RMK A01 T01810032  RH  037%=      5-min Rain = 0
KJU1 162101Z 19010KT 18/03 A3007 RMK A01 T01810031  RH  037%=      5-min Rain = 0
KJU1 162102Z 19010KT 18/03 A3007 RMK A01 T01810032  RH  037%=      5-min Rain = 0
KJU1 162103Z 19008KT 18/03 A3007 RMK A01 T01810032  RH  037%=      5-min Rain = 0
KJU1 162104Z 19008KT 18/03 A3007 RMK A01 T01810033  RH  037%=      5-min Rain = 0
KJU1 162105Z 21008KT 18/03 A3007 RMK A01 T01810033  RH  037%=      5-min Rain = 0
KJU1 162106Z 20007KT 18/03 A3007 RMK A01 T01810031  RH  037%=      5-min Rain = 0
KJU1 162107Z 19006KT 18/03 A3007 RMK A01 T01800032  RH  037%=      5-min Rain = 0
KJU1 162108Z 20005KT 18/03 A3007 RMK A01 T01800033  RH  037%=      5-min Rain = 0
KJU1 162109Z 20006KT 18/03 A3007 RMK A01 T01810033  RH  037%=      5-min Rain = 0
KJU1 162110Z 21005KT 18/03 A3007 RMK A01 T01810034  RH  038%=      5-min Rain = 0
KJU1 162111Z 20006KT 18/04 A3007 RMK A01 T01810035  RH  038%=      5-min Rain = 0
KJU1 162112Z 20007KT 18/04 A3007 RMK A01 T01820036  RH  038%=      5-min Rain = 0
KJU1 162113Z 17008KT 18/04 A3007 RMK A01 T01820035  RH  038%=      5-min Rain = 0
KJU1 162114Z 17010KT 18/03 A3007 RMK A01 T01810034  RH  037%=      5-min Rain = 0
KJU1 162115Z 18008KT 18/03 A3007 RMK A01 T01810033  RH  037%=      5-min Rain = 0
KJU1 162116Z 18008KT 18/03 A3007 RMK A01 T01800033  RH  037%=      5-min Rain = 0
KJU1 162117Z 17007KT 18/03 A3007 RMK A01 T01800034  RH  038%=      5-min Rain = 0
KJU1 162118Z 17006KT 18/03 A3007 RMK A01 T01800033  RH  037%=      5-min Rain = 0
KJU1 162119Z 18006KT 18/03 A3007 RMK A01 T01800034  RH  038%=      5-min Rain = 0
KJU1 162120Z 18008KT 18/04 A3007 RMK A01 T01820038  RH  038%=      5-min Rain = 0
KJU1 162121Z 19008KT 18/04 A3007 RMK A01 T01820040  RH  039%=      5-min Rain = 0
KJU1 162122Z 20009KT 18/04 A3007 RMK A01 T01820040  RH  039%=      5-min Rain = 0
KJU1 162123Z 20007KT 18/04 A3007 RMK A01 T01810041  RH  039%=      5-min Rain = 0
KJU1 162124Z 21011KT 18/04 A3007 RMK A01 T01810039  RH  039%=      5-min Rain = 0
KJU1 162125Z 22010KT 18/04 A3007 RMK A01 T01800038  RH  039%=      5-min Rain = 0
KJU1 162126Z 21008KT 18/04 A3007 RMK A01 T01790038  RH  039%=      5-min Rain = 0
KJU1 162127Z 20009KT 18/04 A3007 RMK A01 T01790038  RH  039%=      5-min Rain = 0
KJU1 162128Z 20008KT 18/04 A3007 RMK A01 T01790038  RH  039%=      5-min Rain = 0
KJU1 162129Z 19007KT 18/04 A3007 RMK A01 T01780039  RH  040%=      5-min Rain = 0
KJU1 162130Z 21006KT 18/04 A3007 RMK A01 T01780040  RH  040%=      5-min Rain = 0
KJU1 162131Z 22003KT 18/04 A3007 RMK A01 T01790040  RH  040%=      5-min Rain = 0
KJU1 162132Z 21006KT 18/04 A3007 RMK A01 T01800040  RH  040%=      5-min Rain = 0
KJU1 162133Z 21006KT 18/04 A3007 RMK A01 T01800041  RH  040%=      5-min Rain = 0
KJU1 162134Z 20007KT 18/04 A3007 RMK A01 T01800039  RH  039%=      5-min Rain = 0
KJU1 162135Z 20006KT 18/04 A3007 RMK A01 T01800041  RH  040%=      5-min Rain = 0
KJU1 162136Z 20007KT 18/04 A3007 RMK A01 T01790039  RH  039%=      5-min Rain = 0
KJU1 162137Z 19007KT 18/04 A3007 RMK A01 T01790039  RH  040%=      5-min Rain = 0
KJU1 162138Z 19008KT 18/04 A3007 RMK A01 T01790038  RH  039%=      5-min Rain = 0
KJU1 162139Z 18006KT 18/04 A3007 RMK A01 T01780039  RH  040%=      5-min Rain = 0
KJU1 162140Z 20007KT 18/04 A3007 RMK A01 T01780042  RH  040%=      5-min Rain = 0
KJU1 162141Z 20005KT 18/04 A3007 RMK A01 T01790043  RH  041%=      5-min Rain = 0
KJU1 162142Z 17008KT 18/04 A3007 RMK A01 T01800043  RH  040%=      5-min Rain = 0
KJU1 162143Z 18008KT 18/04 A3007 RMK A01 T01790041  RH  040%=      5-min Rain = 0
KJU1 162144Z 18007KT 18/04 A3007 RMK A01 T01780040  RH  040%=      5-min Rain = 0
KJU1 162145Z 18006KT 18/04 A3007 RMK A01 T01770039  RH  040%=      5-min Rain = 0
KJU1 162146Z 19006KT 18/04 A3007 RMK A01 T01760039  RH  040%=      5-min Rain = 0
KJU1 162147Z 20008G13KT 18/04 A3007 RMK A01 T01760041  RH  041%=      5-min Rain = 0
KJU1 162148Z 18008KT 18/04 A3007 RMK A01 T01760041  RH  041%=      5-min Rain = 0
KJU1 162149Z 18008KT 18/04 A3007 RMK A01 T01760041  RH  041%=      5-min Rain = 0
KJU1 162150Z 19009KT 18/04 A3007 RMK A01 T01750041  RH  041%=      5-min Rain = 0
KJU1 162151Z 20006KT 18/04 A3007 RMK A01 T01760043  RH  041%=      5-min Rain = 0
KJU1 162152Z 21004KT 18/04 A3007 RMK A01 T01760044  RH  042%=      5-min Rain = 0
KJU1 162153Z 22004KT 18/04 A3007 RMK A01 T01760044  RH  042%=      5-min Rain = 0
KJU1 162154Z 21008KT 18/04 A3007 RMK A01 T01760043  RH  042%=      5-min Rain = 0
KJU1 162155Z 21007KT 18/04 A3007 RMK A01 T01750043  RH  041%=      5-min Rain = 0
KJU1 162156Z 22006KT 18/04 A3007 RMK A01 T01750043  RH  042%=      5-min Rain = 0
KJU1 162157Z 21005KT 17/05 A3007 RMK A01 T01740045  RH  042%=      5-min Rain = 0
KJU1 162158Z 21008KT 17/05 A3008 RMK A01 T01740046  RH  043%=      5-min Rain = 0
KJU1 162159Z 20007KT 18/04 A3008 RMK A01 T01750044  RH  042%=      5-min Rain = 0
KJU1 162200Z 20008KT 17/04 A3008 RMK A01 T01740044  RH  042%=      5-min Rain = 0
KJU1 162201Z 20007KT 17/04 A3008 RMK A01 T01740044  RH  042%=      5-min Rain = 0
KJU1 162202Z 20007KT 17/05 A3008 RMK A01 T01740045  RH  042%=      5-min Rain = 0
KJU1 162203Z 21005KT 17/05 A3008 RMK A01 T01730045  RH  043%=      5-min Rain = 0
KJU1 162204Z 20004KT 17/05 A3008 RMK A01 T01730046  RH  043%=      5-min Rain = 0
KJU1 162205Z 21005KT 17/05 A3008 RMK A01 T01740045  RH  043%=      5-min Rain = 0
KJU1 162206Z 20006KT 17/05 A3008 RMK A01 T01740046  RH  043%=      5-min Rain = 0
KJU1 162207Z 21007KT 17/05 A3008 RMK A01 T01740046  RH  043%=      5-min Rain = 0
KJU1 162208Z 21006KT 17/05 A3008 RMK A01 T01730047  RH  043%=      5-min Rain = 0
KJU1 162209Z 22008KT 17/05 A3008 RMK A01 T01730045  RH  043%=      5-min Rain = 0
KJU1 162210Z 22008KT 17/05 A3008 RMK A01 T01730045  RH  043%=      5-min Rain = 0
KJU1 162211Z 22007KT 17/04 A3007 RMK A01 T01720044  RH  043%=      5-min Rain = 0
KJU1 162212Z 22008KT 17/04 A3007 RMK A01 T01720043  RH  042%=      5-min Rain = 0
KJU1 162213Z 21006KT 17/04 A3007 RMK A01 T01720044  RH  043%=      5-min Rain = 0
KJU1 162214Z 19006KT 17/05 A3007 RMK A01 T01710045  RH  043%=      5-min Rain = 0
KJU1 162215Z 19006KT 17/05 A3007 RMK A01 T01710045  RH  043%=      5-min Rain = 0
KJU1 162216Z 22005KT 17/05 A3007 RMK A01 T01710045  RH  043%=      5-min Rain = 0
KJU1 162217Z 23006KT 17/04 A3007 RMK A01 T01700044  RH  043%=      5-min Rain = 0
KJU1 162218Z 23005KT 17/04 A3006 RMK A01 T01700043  RH  043%=      5-min Rain = 0
KJU1 162219Z 22004KT 17/04 A3006 RMK A01 T01690042  RH  043%=      5-min Rain = 0
KJU1 162220Z 21003KT 17/04 A3006 RMK A01 T01690043  RH  043%=      5-min Rain = 0
KJU1 162221Z 22003KT 17/05 A3006 RMK A01 T01690045  RH  044%=      5-min Rain = 0
KJU1 162222Z 21003KT 17/05 A3006 RMK A01 T01690045  RH  044%=      5-min Rain = 0
KJU1 162223Z 22003KT 17/05 A3006 RMK A01 T01690045  RH  044%=      5-min Rain = 0
KJU1 162224Z 19003KT 17/05 A3006 RMK A01 T01690045  RH  044%=      5-min Rain = 0
KJU1 162225Z 21004KT 17/05 A3006 RMK A01 T01690046  RH  044%=      5-min Rain = 0
KJU1 162226Z 20004KT 17/05 A3006 RMK A01 T01690046  RH  044%=      5-min Rain = 0
KJU1 162227Z 21005KT 17/05 A3006 RMK A01 T01690045  RH  044%=      5-min Rain = 0
KJU1 162228Z 18005KT 17/05 A3006 RMK A01 T01690046  RH  044%=      5-min Rain = 0
KJU1 162229Z 19004KT 17/05 A3006 RMK A01 T01690046  RH  044%=      5-min Rain = 0
KJU1 162230Z 21003KT 17/05 A3006 RMK A01 T01690046  RH  044%=      5-min Rain = 0
KJU1 162231Z 21004KT 17/05 A3006 RMK A01 T01690046  RH  044%=      5-min Rain = 0
KJU1 162232Z 20005KT 17/05 A3006 RMK A01 T01690045  RH  044%=      5-min Rain = 0
KJU1 162233Z 20004KT 17/05 A3006 RMK A01 T01690045  RH  044%=      5-min Rain = 0
KJU1 162234Z 19004KT 17/04 A3006 RMK A01 T01690044  RH  043%=      5-min Rain = 0
KJU1 162235Z 20004KT 17/04 A3006 RMK A01 T01690043  RH  043%=      5-min Rain = 0
KJU1 162236Z 22003KT 17/04 A3006 RMK A01 T01690044  RH  044%=      5-min Rain = 0
KJU1 162237Z 21006KT 17/05 A3006 RMK A01 T01690045  RH  044%=      5-min Rain = 0
KJU1 162238Z 20005KT 17/04 A3006 RMK A01 T01690044  RH  044%=      5-min Rain = 0
KJU1 162239Z 20006KT 17/04 A3006 RMK A01 T01680044  RH  044%=      5-min Rain = 0
KJU1 162240Z 20006KT 17/04 A3006 RMK A01 T01680043  RH  043%=      5-min Rain = 0
KJU1 162241Z 20006KT 17/04 A3006 RMK A01 T01680043  RH  044%=      5-min Rain = 0
KJU1 162242Z 21005KT 17/04 A3006 RMK A01 T01680043  RH  044%=      5-min Rain = 0
KJU1 162243Z 20005KT 17/04 A3006 RMK A01 T01670043  RH  044%=      5-min Rain = 0
KJU1 162244Z 20004KT 17/04 A3007 RMK A01 T01670044  RH  044%=      5-min Rain = 0
KJU1 162245Z 19004KT 17/04 A3007 RMK A01 T01670044  RH  044%=      5-min Rain = 0
KJU1 162246Z 19003KT 17/04 A3007 RMK A01 T01670044  RH  044%=      5-min Rain = 0
KJU1 162247Z 19005KT 17/05 A3006 RMK A01 T01670045  RH  044%=      5-min Rain = 0
KJU1 162248Z 19004KT 17/05 A3006 RMK A01 T01660045  RH  044%=      5-min Rain = 0
KJU1 162249Z 19004KT 17/04 A3006 RMK A01 T01660044  RH  044%=      5-min Rain = 0
KJU1 162250Z 20003KT 17/05 A3006 RMK A01 T01660045  RH  045%=      5-min Rain = 0
KJU1 162251Z 20003KT 17/05 A3006 RMK A01 T01660046  RH  045%=      5-min Rain = 0
KJU1 162252Z 20003KT 17/05 A3006 RMK A01 T01650045  RH  045%=      5-min Rain = 0
KJU1 162253Z 19004KT 17/05 A3006 RMK A01 T01650045  RH  045%=      5-min Rain = 0
KJU1 162254Z 20004KT 17/05 A3006 RMK A01 T01650045  RH  045%=      5-min Rain = 0
KJU1 162255Z 19005KT 17/05 A3006 RMK A01 T01650045  RH  045%=      5-min Rain = 0
KJU1 162256Z 19005KT 17/05 A3006 RMK A01 T01650045  RH  045%=      5-min Rain = 0
KJU1 162257Z 19004KT 17/05 A3006 RMK A01 T01650045  RH  045%=      5-min Rain = 0
KJU1 162258Z 18004KT 16/05 A3006 RMK A01 T01640046  RH  045%=      5-min Rain = 0
KJU1 162259Z 18003KT 16/05 A3006 RMK A01 T01640047  RH  046%=      5-min Rain = 0
KJU1 162300Z 17003KT 16/05 A3006 RMK A01 T01630048  RH  046%=      5-min Rain = 0
KJU1 162301Z 17003KT 16/05 A3006 RMK A01 T01630047  RH  046%=      5-min Rain = 0
KJU1 162302Z 17003KT 16/05 A3006 RMK A01 T01620047  RH  046%=      5-min Rain = 0
KJU1 162303Z 17003KT 16/05 A3006 RMK A01 T01620047  RH  046%=      5-min Rain = 0
KJU1 162304Z 16002KT 16/05 A3006 RMK A01 T01610048  RH  047%=      5-min Rain = 0
KJU1 162305Z 15002KT 16/05 A3006 RMK A01 T01610048  RH  047%=      5-min Rain = 0
KJU1 162306Z 17002KT 16/05 A3006 RMK A01 T01600047  RH  047%=      5-min Rain = 0
KJU1 162307Z 16002KT 16/05 A3007 RMK A01 T01600048  RH  047%=      5-min Rain = 0
KJU1 162308Z 16002KT 16/05 A3007 RMK A01 T01590048  RH  047%=      5-min Rain = 0
KJU1 162309Z 17002KT 16/05 A3007 RMK A01 T01590047  RH  047%=      5-min Rain = 0
KJU1 162310Z 17002KT 16/05 A3007 RMK A01 T01590047  RH  048%=      5-min Rain = 0
KJU1 162311Z 17002KT 16/05 A3007 RMK A01 T01580047  RH  048%=      5-min Rain = 0
KJU1 162312Z 17002KT 16/05 A3007 RMK A01 T01580047  RH  048%=      5-min Rain = 0
KJU1 162313Z 18002KT 16/05 A3007 RMK A01 T01580047  RH  048%=      5-min Rain = 0
KJU1 162314Z 18002KT 16/05 A3007 RMK A01 T01570047  RH  048%=      5-min Rain = 0
KJU1 162315Z 18002KT 16/05 A3007 RMK A01 T01560047  RH  048%=      5-min Rain = 0
KJU1 162316Z 17003KT 16/05 A3007 RMK A01 T01560046  RH  048%=      5-min Rain = 0
KJU1 162317Z 17002KT 16/05 A3007 RMK A01 T01550046  RH  048%=      5-min Rain = 0
KJU1 162318Z 17002KT 16/05 A3007 RMK A01 T01550046  RH  048%=      5-min Rain = 0
KJU1 162319Z 17002KT 15/05 A3007 RMK A01 T01540046  RH  048%=      5-min Rain = 0
KJU1 162320Z 17002KT 15/05 A3007 RMK A01 T01540046  RH  048%=      5-min Rain = 0
KJU1 162321Z 16002KT 15/05 A3007 RMK A01 T01540046  RH  048%=      5-min Rain = 0
KJU1 162322Z 16002KT 15/05 A3007 RMK A01 T01530046  RH  049%=      5-min Rain = 0
KJU1 162323Z 16003KT 15/05 A3007 RMK A01 T01530046  RH  049%=      5-min Rain = 0
KJU1 162324Z 17003KT 15/05 A3007 RMK A01 T01520046  RH  049%=      5-min Rain = 0
KJU1 162325Z 17003KT 15/05 A3007 RMK A01 T01510046  RH  049%=      5-min Rain = 0
KJU1 162326Z 17003KT 15/05 A3007 RMK A01 T01500046  RH  050%=      5-min Rain = 0
KJU1 162327Z 16003KT 15/05 A3007 RMK A01 T01500046  RH  050%=      5-min Rain = 0
KJU1 162328Z 17003KT 15/05 A3007 RMK A01 T01480046  RH  050%=      5-min Rain = 0
KJU1 162329Z 16003KT 15/05 A3007 RMK A01 T01480046  RH  050%=      5-min Rain = 0
KJU1 162330Z 16003KT 15/05 A3007 RMK A01 T01470046  RH  051%=      5-min Rain = 0
KJU1 162331Z 16003KT 15/05 A3007 RMK A01 T01460046  RH  051%=      5-min Rain = 0
KJU1 162332Z 16003KT 15/05 A3007 RMK A01 T01460046  RH  051%=      5-min Rain = 0
KJU1 162333Z 16003KT 15/05 A3007 RMK A01 T01460046  RH  051%=      5-min Rain = 0
KJU1 162334Z 16003KT 15/05 A3007 RMK A01 T01450046  RH  051%=      5-min Rain = 0
KJU1 162335Z 16004KT 14/05 A3007 RMK A01 T01440046  RH  052%=      5-min Rain = 0
KJU1 162336Z 17003KT 14/05 A3007 RMK A01 T01440046  RH  052%=      5-min Rain = 0
KJU1 162337Z 17004KT 14/05 A3007 RMK A01 T01430046  RH  052%=      5-min Rain = 0
KJU1 162338Z 17004KT 14/05 A3007 RMK A01 T01430046  RH  052%=      5-min Rain = 0
KJU1 162339Z 17004KT 14/05 A3007 RMK A01 T01430046  RH  052%=      5-min Rain = 0
KJU1 162340Z 17004KT 14/05 A3007 RMK A01 T01420046  RH  052%=      5-min Rain = 0
KJU1 162341Z 17004KT 14/05 A3007 RMK A01 T01420046  RH  052%=      5-min Rain = 0
KJU1 162342Z 18004KT 14/05 A3007 RMK A01 T01420046  RH  053%=      5-min Rain = 0
KJU1 162343Z 18004KT 14/05 A3007 RMK A01 T01410046  RH  053%=      5-min Rain = 0
KJU1 162344Z 18004KT 14/05 A3007 RMK A01 T01410046  RH  053%=      5-min Rain = 0
KJU1 162345Z 17003KT 14/05 A3007 RMK A01 T01410046  RH  053%=      5-min Rain = 0
KJU1 162346Z 18003KT 14/05 A3007 RMK A01 T01400046  RH  053%=      5-min Rain = 0
KJU1 162347Z 18003KT 14/05 A3007 RMK A01 T01390046  RH  053%=      5-min Rain = 0
KJU1 162348Z 18003KT 14/05 A3007 RMK A01 T01380045  RH  053%=      5-min Rain = 0
KJU1 162349Z 18003KT 14/05 A3007 RMK A01 T01380045  RH  053%=      5-min Rain = 0
KJU1 162350Z 18003KT 14/05 A3007 RMK A01 T01380045  RH  053%=      5-min Rain = 0
KJU1 162351Z 17003KT 14/05 A3007 RMK A01 T01380045  RH  053%=      5-min Rain = 0
KJU1 162352Z 17003KT 14/04 A3007 RMK A01 T01380044  RH  053%=      5-min Rain = 0
KJU1 162353Z 17003KT 14/05 A3007 RMK A01 T01380045  RH  054%=      5-min Rain = 0
KJU1 162354Z 17003KT 14/05 A3007 RMK A01 T01370045  RH  054%=      5-min Rain = 0
KJU1 162355Z 17003KT 14/04 A3007 RMK A01 T01370044  RH  054%=      5-min Rain = 0
KJU1 162356Z 18003KT 14/04 A3008 RMK A01 T01370044  RH  053%=      5-min Rain = 0
KJU1 162357Z 17003KT 14/04 A3008 RMK A01 T01370044  RH  053%=      5-min Rain = 0
KJU1 162358Z 18004KT 14/04 A3008 RMK A01 T01370044  RH  054%=      5-min Rain = 0
KJU1 162359Z 18003KT 14/04 A3008 RMK A01 T01360044  RH  054%=      5-min Rain = 0
KJU1 170000Z 18003KT 14/05 A3008 RMK A01 T01360045  RH  054%=      5-min Rain = 0
KJU1 170001Z 18004KT 14/04 A3008 RMK A01 T01350044  RH  054%=      5-min Rain = 0
KJU1 170002Z 18004KT 14/04 A3008 RMK A01 T01350044  RH  054%=      5-min Rain = 0
KJU1 170003Z 18004KT 14/04 A3007 RMK A01 T01350044  RH  054%=      5-min Rain = 0
KJU1 170004Z 18005KT 14/04 A3008 RMK A01 T01360044  RH  054%=      5-min Rain = 0
KJU1 170005Z 18005KT 14/04 A3008 RMK A01 T01360044  RH  054%=      5-min Rain = 0
KJU1 170006Z 18005KT 14/04 A3008 RMK A01 T01360044  RH  054%=      5-min Rain = 0
KJU1 170007Z 19004KT 14/05 A3008 RMK A01 T01360045  RH  054%=      5-min Rain = 0
KJU1 170008Z 18004KT 14/05 A3008 RMK A01 T01360045  RH  054%=      5-min Rain = 0
KJU1 170009Z 18004KT 14/04 A3008 RMK A01 T01360044  RH  054%=      5-min Rain = 0
KJU1 170010Z 18004KT 14/04 A3008 RMK A01 T01360044  RH  054%=      5-min Rain = 0
KJU1 170011Z 19004KT 14/04 A3008 RMK A01 T01360044  RH  054%=      5-min Rain = 0
KJU1 170012Z 18004KT 14/04 A3008 RMK A01 T01360043  RH  054%=      5-min Rain = 0
KJU1 170013Z 18004KT 14/04 A3008 RMK A01 T01360043  RH  053%=      5-min Rain = 0
KJU1 170014Z 18005KT 14/04 A3007 RMK A01 T01360043  RH  053%=      5-min Rain = 0
KJU1 170015Z 18004KT 14/04 A3007 RMK A01 T01360043  RH  053%=      5-min Rain = 0
KJU1 170016Z 18004KT 14/04 A3007 RMK A01 T01360042  RH  053%=      5-min Rain = 0
KJU1 170017Z 17004KT 14/04 A3007 RMK A01 T01360042  RH  053%=      5-min Rain = 0
KJU1 170018Z 16004KT 14/04 A3007 RMK A01 T01360042  RH  053%=      5-min Rain = 0
KJU1 170019Z 16004KT 14/04 A3007 RMK A01 T01360042  RH  053%=      5-min Rain = 0
KJU1 170020Z 16003KT 14/04 A3007 RMK A01 T01360042  RH  053%=      5-min Rain = 0
KJU1 170021Z 16004KT 14/04 A3007 RMK A01 T01350042  RH  053%=      5-min Rain = 0
KJU1 170022Z 16004KT 14/04 A3006 RMK A01 T01350042  RH  053%=      5-min Rain = 0
KJU1 170023Z 16003KT 13/04 A3006 RMK A01 T01340042  RH  054%=      5-min Rain = 0
KJU1 170024Z 16004KT 13/04 A3006 RMK A01 T01340042  RH  054%=      5-min Rain = 0
KJU1 170025Z 16004KT 13/04 A3006 RMK A01 T01330041  RH  054%=      5-min Rain = 0
KJU1 170026Z 16004KT 13/04 A3007 RMK A01 T01330041  RH  054%=      5-min Rain = 0
KJU1 170027Z 16004KT 13/04 A3006 RMK A01 T01330041  RH  054%=      5-min Rain = 0
KJU1 170028Z 15004KT 13/04 A3006 RMK A01 T01330042  RH  054%=      5-min Rain = 0
KJU1 170029Z 15005KT 13/04 A3006 RMK A01 T01330041  RH  054%=      5-min Rain = 0
KJU1 170030Z 16004KT 13/04 A3006 RMK A01 T01330041  RH  054%=      5-min Rain = 0
KJU1 170031Z 15004KT 13/04 A3006 RMK A01 T01330041  RH  054%=      5-min Rain = 0
KJU1 170032Z 17005KT 13/04 A3007 RMK A01 T01330041  RH  054%=      5-min Rain = 0
KJU1 170033Z 16005KT 13/04 A3007 RMK A01 T01330041  RH  054%=      5-min Rain = 0
KJU1 170034Z 17004KT 13/04 A3007 RMK A01 T01330041  RH  054%=      5-min Rain = 0
KJU1 170035Z 17004KT 13/04 A3007 RMK A01 T01330041  RH  054%=      5-min Rain = 0
KJU1 170036Z 18004KT 13/04 A3007 RMK A01 T01310041  RH  054%=      5-min Rain = 0
KJU1 170037Z 18004KT 13/04 A3007 RMK A01 T01300041  RH  055%=      5-min Rain = 0
KJU1 170038Z 18004KT 13/04 A3007 RMK A01 T01290041  RH  055%=      5-min Rain = 0
KJU1 170039Z 18004KT 13/04 A3007 RMK A01 T01290041  RH  055%=      5-min Rain = 0
KJU1 170040Z 18004KT 13/04 A3008 RMK A01 T01290041  RH  055%=      5-min Rain = 0
KJU1 170041Z 18004KT 13/04 A3007 RMK A01 T01280041  RH  055%=      5-min Rain = 0
KJU1 170042Z 18004KT 13/04 A3007 RMK A01 T01280041  RH  055%=      5-min Rain = 0
KJU1 170043Z 18003KT 13/04 A3007 RMK A01 T01280040  RH  055%=      5-min Rain = 0
KJU1 170044Z 19003KT 13/04 A3007 RMK A01 T01270040  RH  055%=      5-min Rain = 0
KJU1 170045Z 19003KT 13/04 A3007 RMK A01 T01260040  RH  056%=      5-min Rain = 0
KJU1 170046Z 19003KT 13/04 A3007 RMK A01 T01250040  RH  056%=      5-min Rain = 0
KJU1 170047Z 20003KT 12/04 A3008 RMK A01 T01240040  RH  056%=      5-min Rain = 0
KJU1 170048Z 19004KT 12/04 A3008 RMK A01 T01240040  RH  056%=      5-min Rain = 0
KJU1 170049Z 20004KT 12/04 A3008 RMK A01 T01240039  RH  056%=      5-min Rain = 0
KJU1 170050Z 20003KT 12/04 A3008 RMK A01 T01240040  RH  056%=      5-min Rain = 0
KJU1 170051Z 20004KT 12/04 A3008 RMK A01 T01240041  RH  057%=      5-min Rain = 0
KJU1 170052Z 20004KT 12/04 A3008 RMK A01 T01240041  RH  057%=      5-min Rain = 0
KJU1 170053Z 20004KT 12/04 A3008 RMK A01 T01240041  RH  057%=      5-min Rain = 0
KJU1 170054Z 19003KT 12/04 A3008 RMK A01 T01240040  RH  057%=      5-min Rain = 0
KJU1 170055Z 19003KT 12/04 A3008 RMK A01 T01230040  RH  057%=      5-min Rain = 0
KJU1 170056Z 20003KT 12/04 A3008 RMK A01 T01240040  RH  057%=      5-min Rain = 0
KJU1 170057Z 20003KT 12/04 A3008 RMK A01 T01230040  RH  057%=      5-min Rain = 0
KJU1 170058Z 19004KT 12/04 A3008 RMK A01 T01230040  RH  057%=      5-min Rain = 0
KJU1 170059Z 19004KT 12/04 A3008 RMK A01 T01230040  RH  057%=      5-min Rain = 0
KJU1 170100Z 20005KT 12/04 A3008 RMK A01 T01230040  RH  057%=      5-min Rain = 0
KJU1 170101Z 19004KT 12/04 A3008 RMK A01 T01230039  RH  056%=      5-min Rain = 0
KJU1 170102Z 20004KT 12/04 A3008 RMK A01 T01230039  RH  056%=      5-min Rain = 0
KJU1 170103Z 20004KT 12/04 A3008 RMK A01 T01230038  RH  056%=      5-min Rain = 0
KJU1 170104Z 20004KT 12/04 A3008 RMK A01 T01230038  RH  056%=      5-min Rain = 0
KJU1 170105Z 20004KT 12/04 A3008 RMK A01 T01230038  RH  056%=      5-min Rain = 0
KJU1 170106Z 21004KT 12/04 A3008 RMK A01 T01230037  RH  056%=      5-min Rain = 0
KJU1 170107Z 21003KT 12/04 A3008 RMK A01 T01240038  RH  056%=      5-min Rain = 0
KJU1 170108Z 22004KT 12/04 A3008 RMK A01 T01230037  RH  056%=      5-min Rain = 0
KJU1 170109Z 23004KT 12/04 A3009 RMK A01 T01220037  RH  056%=      5-min Rain = 0
KJU1 170110Z 22004KT 12/04 A3009 RMK A01 T01220038  RH  057%=      5-min Rain = 0
KJU1 170111Z 23004KT 12/04 A3009 RMK A01 T01210038  RH  057%=      5-min Rain = 0
KJU1 170112Z 22004KT 12/04 A3009 RMK A01 T01200039  RH  058%=      5-min Rain = 0
KJU1 170113Z 21003KT 12/04 A3009 RMK A01 T01190040  RH  058%=      5-min Rain = 0
KJU1 170114Z 21003KT 12/04 A3009 RMK A01 T01180040  RH  059%=      5-min Rain = 0
KJU1 170115Z 20002KT 12/04 A3009 RMK A01 T01170040  RH  059%=      5-min Rain = 0
KJU1 170116Z 20002KT 12/04 A3009 RMK A01 T01160040  RH  060%=      5-min Rain = 0
KJU1 170117Z 20003KT 12/04 A3009 RMK A01 T01150040  RH  060%=      5-min Rain = 0
KJU1 170118Z 20003KT 12/04 A3009 RMK A01 T01150040  RH  060%=      5-min Rain = 0
KJU1 170119Z 20003KT 11/04 A3009 RMK A01 T01140040  RH  060%=      5-min Rain = 0
KJU1 170120Z 20002KT 11/04 A3009 RMK A01 T01140039  RH  060%=      5-min Rain = 0
KJU1 170121Z 20002KT 11/04 A3009 RMK A01 T01140039  RH  060%=      5-min Rain = 0
KJU1 170122Z 20002KT 11/04 A3009 RMK A01 T01130039  RH  060%=      5-min Rain = 0
KJU1 170123Z 20002KT 11/04 A3009 RMK A01 T01130039  RH  060%=      5-min Rain = 0
KJU1 170124Z 20002KT 11/04 A3009 RMK A01 T01130039  RH  060%=      5-min Rain = 0
KJU1 170125Z 20003KT 11/04 A3009 RMK A01 T01130039  RH  060%=      5-min Rain = 0
KJU1 170126Z 20003KT 11/04 A3009 RMK A01 T01130039  RH  060%=      5-min Rain = 0
KJU1 170127Z 19003KT 11/04 A3009 RMK A01 T01130039  RH  060%=      5-min Rain = 0
KJU1 170128Z 18004KT 11/04 A3009 RMK A01 T01130038  RH  060%=      5-min Rain = 0
KJU1 170129Z 18005KT 11/04 A3009 RMK A01 T01130037  RH  059%=      5-min Rain = 0
KJU1 170130Z 18004KT 11/04 A3009 RMK A01 T01130036  RH  059%=      5-min Rain = 0
KJU1 170131Z 18004KT 11/04 A3009 RMK A01 T01130035  RH  059%=      5-min Rain = 0
KJU1 170132Z 17004KT 11/04 A3009 RMK A01 T01140035  RH  059%=      5-min Rain = 0
KJU1 170133Z 18005KT 11/04 A3009 RMK A01 T01140035  RH  058%=      5-min Rain = 0
KJU1 170134Z 17006KT 12/04 A3009 RMK A01 T01150035  RH  058%=      5-min Rain = 0
KJU1 170135Z 17005KT 12/04 A3009 RMK A01 T01170035  RH  057%=      5-min Rain = 0
KJU1 170136Z 17005KT 12/04 A3009 RMK A01 T01180035  RH  057%=      5-min Rain = 0
KJU1 170137Z 17005KT 12/04 A3009 RMK A01 T01190035  RH  056%=      5-min Rain = 0
KJU1 170138Z 16005KT 12/03 A3009 RMK A01 T01190034  RH  056%=      5-min Rain = 0
KJU1 170139Z 16004KT 12/04 A3009 RMK A01 T01190035  RH  056%=      5-min Rain = 0
KJU1 170140Z 16004KT 12/04 A3009 RMK A01 T01190035  RH  056%=      5-min Rain = 0
KJU1 170141Z 16004KT 12/03 A3009 RMK A01 T01180034  RH  056%=      5-min Rain = 0
KJU1 170142Z 16003KT 12/03 A3009 RMK A01 T01180033  RH  056%=      5-min Rain = 0
KJU1 170143Z 16003KT 12/03 A3009 RMK A01 T01190033  RH  056%=      5-min Rain = 0
KJU1 170144Z 17004KT 12/03 A3009 RMK A01 T01180033  RH  056%=      5-min Rain = 0
KJU1 170145Z 17004KT 12/03 A3009 RMK A01 T01180034  RH  056%=      5-min Rain = 0
KJU1 170146Z 17005KT 12/03 A3009 RMK A01 T01170033  RH  056%=      5-min Rain = 0
KJU1 170147Z 17005KT 12/03 A3009 RMK A01 T01170033  RH  056%=      5-min Rain = 0
KJU1 170148Z 17005KT 12/03 A3008 RMK A01 T01170033  RH  056%=      5-min Rain = 0
KJU1 170149Z 17004KT 12/03 A3009 RMK A01 T01170033  RH  057%=      5-min Rain = 0
KJU1 170150Z 17005KT 12/03 A3009 RMK A01 T01160033  RH  057%=      5-min Rain = 0
KJU1 170151Z 17004KT 12/03 A3008 RMK A01 T01150033  RH  057%=      5-min Rain = 0
KJU1 170152Z 17004KT 11/03 A3008 RMK A01 T01140033  RH  057%=      5-min Rain = 0
KJU1 170153Z 17005KT 11/03 A3008 RMK A01 T01130033  RH  058%=      5-min Rain = 0
KJU1 170154Z 17005KT 11/03 A3008 RMK A01 T01130033  RH  058%=      5-min Rain = 0
KJU1 170155Z 17004KT 11/03 A3008 RMK A01 T01120033  RH  058%=      5-min Rain = 0
KJU1 170156Z 17004KT 11/03 A3008 RMK A01 T01110032  RH  058%=      5-min Rain = 0
KJU1 170157Z 17004KT 11/03 A3008 RMK A01 T01110032  RH  058%=      5-min Rain = 0
KJU1 170158Z 17004KT 11/03 A3008 RMK A01 T01110032  RH  058%=      5-min Rain = 0
KJU1 170159Z 17005KT 11/03 A3008 RMK A01 T01110032  RH  058%=      5-min Rain = 0
KJU1 170200Z 16004KT 11/03 A3008 RMK A01 T01110032  RH  058%=      5-min Rain = 0
KJU1 170201Z 17006KT 11/03 A3008 RMK A01 T01120032  RH  058%=      5-min Rain = 0
KJU1 170202Z 17005KT 11/03 A3008 RMK A01 T01130032  RH  058%=      5-min Rain = 0
KJU1 170203Z 17006KT 11/03 A3008 RMK A01 T01130032  RH  057%=      5-min Rain = 0
KJU1 170204Z 17005KT 11/03 A3008 RMK A01 T01130032  RH  057%=      5-min Rain = 0
KJU1 170205Z 17005KT 11/03 A3008 RMK A01 T01130031  RH  057%=      5-min Rain = 0
KJU1 170206Z 17004KT 11/03 A3008 RMK A01 T01130031  RH  057%=      5-min Rain = 0
KJU1 170207Z 17005KT 11/03 A3008 RMK A01 T01130031  RH  057%=      5-min Rain = 0
KJU1 170208Z 17005KT 11/03 A3008 RMK A01 T01130031  RH  057%=      5-min Rain = 0
KJU1 170209Z 18004KT 11/03 A3008 RMK A01 T01140031  RH  057%=      5-min Rain = 0
KJU1 170210Z 18005KT 11/03 A3008 RMK A01 T01130031  RH  057%=      5-min Rain = 0
KJU1 170211Z 18004KT 11/03 A3009 RMK A01 T01130031  RH  057%=      5-min Rain = 0
KJU1 170212Z 19004KT 11/03 A3009 RMK A01 T01130031  RH  057%=      5-min Rain = 0
KJU1 170213Z 20005KT 11/03 A3009 RMK A01 T01130030  RH  057%=      5-min Rain = 0
KJU1 170214Z 20004KT 11/03 A3009 RMK A01 T01130030  RH  057%=      5-min Rain = 0
KJU1 170215Z 21004KT 11/03 A3009 RMK A01 T01140031  RH  057%=      5-min Rain = 0
KJU1 170216Z 21004KT 11/03 A3009 RMK A01 T01130031  RH  057%=      5-min Rain = 0
KJU1 170217Z 22004KT 11/03 A3009 RMK A01 T01130031  RH  057%=      5-min Rain = 0
KJU1 170218Z 21003KT 11/03 A3009 RMK A01 T01120031  RH  057%=      5-min Rain = 0
KJU1 170219Z 21003KT 11/03 A3009 RMK A01 T01120031  RH  058%=      5-min Rain = 0
KJU1 170220Z 21003KT 11/03 A3009 RMK A01 T01110032  RH  058%=      5-min Rain = 0
KJU1 170221Z 20003KT 11/03 A3009 RMK A01 T01100031  RH  058%=      5-min Rain = 0
KJU1 170222Z 20003KT 11/03 A3009 RMK A01 T01090032  RH  059%=      5-min Rain = 0
KJU1 170223Z 20004KT 11/03 A3009 RMK A01 T01080031  RH  059%=      5-min Rain = 0
KJU1 170224Z 20003KT 11/03 A3009 RMK A01 T01070031  RH  059%=      5-min Rain = 0
KJU1 170225Z 20003KT 11/03 A3009 RMK A01 T01060030  RH  060%=      5-min Rain = 0
KJU1 170226Z 19003KT 11/03 A3009 RMK A01 T01050030  RH  060%=      5-min Rain = 0
KJU1 170227Z 20003KT 10/03 A3009 RMK A01 T01040030  RH  060%=      5-min Rain = 0
KJU1 170228Z 20003KT 10/03 A3009 RMK A01 T01040030  RH  060%=      5-min Rain = 0
KJU1 170229Z 20003KT 10/03 A3009 RMK A01 T01040030  RH  060%=      5-min Rain = 0
KJU1 170230Z 21002KT 10/03 A3009 RMK A01 T01040030  RH  060%=      5-min Rain = 0
KJU1 170231Z 21003KT 10/03 A3009 RMK A01 T01030030  RH  060%=      5-min Rain = 0
KJU1 170232Z 22002KT 10/03 A3009 RMK A01 T01030030  RH  060%=      5-min Rain = 0
KJU1 170233Z 22002KT 10/03 A3009 RMK A01 T01030030  RH  060%=      5-min Rain = 0
KJU1 170234Z 22002KT 10/03 A3009 RMK A01 T01030030  RH  061%=      5-min Rain = 0
KJU1 170235Z 22002KT 10/03 A3009 RMK A01 T01020030  RH  061%=      5-min Rain = 0
KJU1 170236Z 22002KT 10/03 A3009 RMK A01 T01020030  RH  061%=      5-min Rain = 0
KJU1 170237Z 21003KT 10/03 A3009 RMK A01 T01000029  RH  062%=      5-min Rain = 0
KJU1 170238Z 21002KT 10/03 A3009 RMK A01 T00980028  RH  062%=      5-min Rain = 0
KJU1 170239Z 20002KT 10/03 A3009 RMK A01 T00960028  RH  063%=      5-min Rain = 0
KJU1 170240Z 20002KT 10/03 A3009 RMK A01 T00950029  RH  063%=      5-min Rain = 0
KJU1 170241Z 19002KT 10/03 A3008 RMK A01 T00950029  RH  063%=      5-min Rain = 0
KJU1 170242Z 19002KT 10/03 A3008 RMK A01 T00950029  RH  063%=      5-min Rain = 0
KJU1 170243Z 19002KT 10/03 A3008 RMK A01 T00960029  RH  063%=      5-min Rain = 0
KJU1 170244Z 19002KT 10/03 A3008 RMK A01 T00970029  RH  063%=      5-min Rain = 0
KJU1 170245Z 20002KT 10/03 A3009 RMK A01 T00970029  RH  063%=      5-min Rain = 0
KJU1 170246Z 20003KT 10/03 A3009 RMK A01 T00970030  RH  063%=      5-min Rain = 0
KJU1 170247Z 20003KT 10/03 A3009 RMK A01 T00970030  RH  063%=      5-min Rain = 0
KJU1 170248Z 20003KT 10/03 A3009 RMK A01 T00960028  RH  063%=      5-min Rain = 0
KJU1 170249Z 20002KT 10/03 A3009 RMK A01 T00950028  RH  063%=      5-min Rain = 0
KJU1 170250Z 21002KT 09/03 A3009 RMK A01 T00930027  RH  063%=      5-min Rain = 0
KJU1 170251Z 21002KT 09/03 A3009 RMK A01 T00920028  RH  064%=      5-min Rain = 0
KJU1 170252Z 21002KT 09/03 A3009 RMK A01 T00910027  RH  064%=      5-min Rain = 0
KJU1 170253Z 19002KT 09/03 A3009 RMK A01 T00890027  RH  065%=      5-min Rain = 0
KJU1 170254Z 19003KT 09/03 A3008 RMK A01 T00880027  RH  065%=      5-min Rain = 0
KJU1 170255Z 18003KT 09/03 A3008 RMK A01 T00880029  RH  066%=      5-min Rain = 0
KJU1 170256Z 18003KT 09/03 A3008 RMK A01 T00890030  RH  066%=      5-min Rain = 0
KJU1 170257Z 18003KT 09/03 A3008 RMK A01 T00910030  RH  066%=      5-min Rain = 0
KJU1 170258Z 19003KT 09/03 A3008 RMK A01 T00910030  RH  065%=      5-min Rain = 0
KJU1 170259Z 19003KT 09/03 A3009 RMK A01 T00900029  RH  066%=      5-min Rain = 0
KJU1 170300Z 19003KT 09/03 A3009 RMK A01 T00890029  RH  066%=      5-min Rain = 0
KJU1 170301Z 19003KT 09/03 A3009 RMK A01 T00870028  RH  067%=      5-min Rain = 0
KJU1 170302Z 19002KT 09/03 A3009 RMK A01 T00870029  RH  067%=      5-min Rain = 0
KJU1 170303Z 19002KT 09/03 A3009 RMK A01 T00860028  RH  067%=      5-min Rain = 0
KJU1 170304Z 19002KT 09/03 A3009 RMK A01 T00860028  RH  067%=      5-min Rain = 0
KJU1 170305Z 19002KT 09/03 A3009 RMK A01 T00850028  RH  067%=      5-min Rain = 0
KJU1 170306Z 19002KT 09/03 A3009 RMK A01 T00850028  RH  067%=      5-min Rain = 0
KJU1 170307Z 19002KT 08/03 A3009 RMK A01 T00840027  RH  068%=      5-min Rain = 0
KJU1 170308Z 19003KT 08/03 A3009 RMK A01 T00820026  RH  068%=      5-min Rain = 0
KJU1 170309Z 19003KT 08/03 A3009 RMK A01 T00800026  RH  068%=      5-min Rain = 0
KJU1 170310Z 19003KT 08/03 A3009 RMK A01 T00790025  RH  069%=      5-min Rain = 0
KJU1 170311Z 19004KT 08/03 A3009 RMK A01 T00770025  RH  070%=      5-min Rain = 0
KJU1 170312Z 20004KT 08/03 A3009 RMK A01 T00760026  RH  070%=      5-min Rain = 0
KJU1 170313Z 20004KT 08/03 A3009 RMK A01 T00760026  RH  071%=      5-min Rain = 0
KJU1 170314Z 21003KT 08/03 A3009 RMK A01 T00770027  RH  071%=      5-min Rain = 0
KJU1 170315Z 20003KT 08/03 A3009 RMK A01 T00790029  RH  071%=      5-min Rain = 0
KJU1 170316Z 19003KT 08/03 A3009 RMK A01 T00800029  RH  070%=      5-min Rain = 0
KJU1 170317Z 20003KT 08/03 A3009 RMK A01 T00800027  RH  069%=      5-min Rain = 0
KJU1 170318Z 19003KT 08/03 A3009 RMK A01 T00780026  RH  070%=      5-min Rain = 0
KJU1 170319Z 19003KT 08/03 A3009 RMK A01 T00780027  RH  070%=      5-min Rain = 0
KJU1 170320Z 19003KT 08/03 A3009 RMK A01 T00780027  RH  070%=      5-min Rain = 0
KJU1 170321Z 18003KT 08/03 A3009 RMK A01 T00770026  RH  070%=      5-min Rain = 0
KJU1 170322Z 18003KT 08/03 A3009 RMK A01 T00760026  RH  071%=      5-min Rain = 0
KJU1 170323Z 19002KT 08/03 A3009 RMK A01 T00750026  RH  071%=      5-min Rain = 0
KJU1 170324Z 19002KT 07/03 A3009 RMK A01 T00740025  RH  071%=      5-min Rain = 0
KJU1 170325Z 19002KT 07/03 A3009 RMK A01 T00730026  RH  072%=      5-min Rain = 0
KJU1 170326Z 19002KT 07/03 A3009 RMK A01 T00730026  RH  072%=      5-min Rain = 0
KJU1 170327Z 19002KT 07/03 A3009 RMK A01 T00730026  RH  072%=      5-min Rain = 0
KJU1 170328Z 20001KT 07/03 A3009 RMK A01 T00730026  RH  072%=      5-min Rain = 0
KJU1 170329Z 20001KT 07/03 A3009 RMK A01 T00730026  RH  072%=      5-min Rain = 0
KJU1 170330Z 20001KT 07/03 A3009 RMK A01 T00720028  RH  073%=      5-min Rain = 0
KJU1 170331Z 20001KT 07/03 A3009 RMK A01 T00710029  RH  074%=      5-min Rain = 0
KJU1 170332Z 20001KT 07/03 A3009 RMK A01 T00710028  RH  075%=      5-min Rain = 0
KJU1 170333Z 19001KT 07/03 A3009 RMK A01 T00700028  RH  075%=      5-min Rain = 0
KJU1 170334Z 18001KT 07/03 A3009 RMK A01 T00690027  RH  074%=      5-min Rain = 0
KJU1 170335Z 18002KT 07/03 A3009 RMK A01 T00680025  RH  074%=      5-min Rain = 0
KJU1 170336Z 18001KT 07/03 A3009 RMK A01 T00670025  RH  074%=      5-min Rain = 0
KJU1 170337Z 19001KT 07/02 A3009 RMK A01 T00660024  RH  074%=      5-min Rain = 0
KJU1 170338Z 18001KT 07/02 A3009 RMK A01 T00650023  RH  075%=      5-min Rain = 0
KJU1 170339Z 17002KT 06/02 A3009 RMK A01 T00640023  RH  075%=      5-min Rain = 0
KJU1 170340Z 17002KT 06/02 A3009 RMK A01 T00630023  RH  075%=      5-min Rain = 0
KJU1 170341Z 16002KT 06/02 A3009 RMK A01 T00620023  RH  076%=      5-min Rain = 0
KJU1 170342Z 17003KT 06/02 A3009 RMK A01 T00620024  RH  076%=      5-min Rain = 0
KJU1 170343Z 16002KT 06/02 A3008 RMK A01 T00620024  RH  077%=      5-min Rain = 0
KJU1 170344Z 17003KT 06/02 A3008 RMK A01 T00620024  RH  077%=      5-min Rain = 0
KJU1 170345Z 17003KT 06/03 A3008 RMK A01 T00630026  RH  077%=      5-min Rain = 0
KJU1 170346Z 17003KT 06/02 A3008 RMK A01 T00630024  RH  076%=      5-min Rain = 0
KJU1 170347Z 17004KT 06/02 A3008 RMK A01 T00620024  RH  077%=      5-min Rain = 0
KJU1 170348Z 17004KT 07/03 A3008 RMK A01 T00650028  RH  078%=      5-min Rain = 0
KJU1 170349Z 17003KT 07/03 A3008 RMK A01 T00690030  RH  076%=      5-min Rain = 0
KJU1 170350Z 17004KT 07/03 A3008 RMK A01 T00690028  RH  075%=      5-min Rain = 0
KJU1 170351Z 17004KT 07/03 A3008 RMK A01 T00700028  RH  075%=      5-min Rain = 0
KJU1 170352Z 18004KT 07/03 A3008 RMK A01 T00710027  RH  074%=      5-min Rain = 0
KJU1 170353Z 17003KT 07/03 A3008 RMK A01 T00700026  RH  074%=      5-min Rain = 0
KJU1 170354Z 17003KT 07/03 A3008 RMK A01 T00700027  RH  074%=      5-min Rain = 0
KJU1 170355Z 18003KT 07/03 A3008 RMK A01 T00710028  RH  074%=      5-min Rain = 0
KJU1 170356Z 18003KT 07/03 A3008 RMK A01 T00720029  RH  074%=      5-min Rain = 0
KJU1 170357Z 17003KT 07/03 A3008 RMK A01 T00730029  RH  073%=      5-min Rain = 0
KJU1 170358Z 18003KT 07/03 A3008 RMK A01 T00740028  RH  073%=      5-min Rain = 0
KJU1 170359Z 18002KT 07/03 A3008 RMK A01 T00730026  RH  072%=      5-min Rain = 0
KJU1 170400Z 18002KT 07/02 A3008 RMK A01 T00710023  RH  072%=      5-min Rain = 0
KJU1 170401Z 18002KT 07/02 A3008 RMK A01 T00680022  RH  072%=      5-min Rain = 0
KJU1 170402Z 19002KT 07/02 A3008 RMK A01 T00670022  RH  073%=      5-min Rain = 0
KJU1 170403Z 20002KT 07/02 A3008 RMK A01 T00660023  RH  074%=      5-min Rain = 0
KJU1 170404Z 20002KT 07/02 A3008 RMK A01 T00650024  RH  075%=      5-min Rain = 0
KJU1 170405Z 20002KT 07/03 A3008 RMK A01 T00650025  RH  075%=      5-min Rain = 0
KJU1 170406Z 21002KT 07/03 A3008 RMK A01 T00650026  RH  076%=      5-min Rain = 0
KJU1 170407Z 22001KT 07/03 A3008 RMK A01 T00670027  RH  076%=      5-min Rain = 0
KJU1 170408Z 24001KT 07/03 A3008 RMK A01 T00670027  RH  076%=      5-min Rain = 0
KJU1 170409Z 24001KT 07/03 A3008 RMK A01 T00650025  RH  076%=      5-min Rain = 0
KJU1 170410Z 25000KT 06/02 A3008 RMK A01 T00640024  RH  076%=      5-min Rain = 0
KJU1 170411Z 00000KT 06/02 A3008 RMK A01 T00610022  RH  076%=      5-min Rain = 0
KJU1 170412Z 00000KT 06/02 A3008 RMK A01 T00590021  RH  077%=      5-min Rain = 0
KJU1 170413Z 00000KT 06/02 A3008 RMK A01 T00580022  RH  078%=      5-min Rain = 0
KJU1 170414Z 00000KT 06/02 A3008 RMK A01 T00580024  RH  078%=      5-min Rain = 0
KJU1 170415Z 00000KT 06/02 A3007 RMK A01 T00570024  RH  079%=      5-min Rain = 0
KJU1 170416Z 00000KT 06/03 A3007 RMK A01 T00570025  RH  080%=      5-min Rain = 0
KJU1 170417Z 00000KT 06/02 A3007 RMK A01 T00560024  RH  080%=      5-min Rain = 0
KJU1 170418Z 00000KT 06/03 A3007 RMK A01 T00560025  RH  080%=      5-min Rain = 0
KJU1 170419Z 00000KT 06/02 A3007 RMK A01 T00560024  RH  080%=      5-min Rain = 0
KJU1 170420Z 00000KT 06/02 A3007 RMK A01 T00550023  RH  080%=      5-min Rain = 0
KJU1 170421Z 00000KT 06/02 A3007 RMK A01 T00550021  RH  079%=      5-min Rain = 0
KJU1 170422Z 00000KT 06/02 A3007 RMK A01 T00550021  RH  079%=      5-min Rain = 0
KJU1 170423Z 14001KT 05/02 A3007 RMK A01 T00540019  RH  078%=      5-min Rain = 0
KJU1 170424Z 15001KT 05/02 A3007 RMK A01 T00520018  RH  079%=      5-min Rain = 0
KJU1 170425Z 15001KT 05/02 A3007 RMK A01 T00500017  RH  079%=      5-min Rain = 0
KJU1 170426Z 16001KT 05/02 A3007 RMK A01 T00480016  RH  080%=      5-min Rain = 0
KJU1 170427Z 17002KT 05/02 A3007 RMK A01 T00470017  RH  080%=      5-min Rain = 0
KJU1 170428Z 17002KT 05/02 A3007 RMK A01 T00470017  RH  081%=      5-min Rain = 0
KJU1 170429Z 18001KT 05/02 A3007 RMK A01 T00460018  RH  082%=      5-min Rain = 0
KJU1 170430Z 18002KT 05/02 A3007 RMK A01 T00460020  RH  083%=      5-min Rain = 0
KJU1 170431Z 18002KT 05/02 A3007 RMK A01 T00470020  RH  083%=      5-min Rain = 0
KJU1 170432Z 17002KT 05/02 A3007 RMK A01 T00470020  RH  083%=      5-min Rain = 0
KJU1 170433Z 17002KT 05/02 A3007 RMK A01 T00460018  RH  082%=      5-min Rain = 0
KJU1 170434Z 18002KT 05/02 A3007 RMK A01 T00450018  RH  083%=      5-min Rain = 0
KJU1 170435Z 18002KT 05/02 A3007 RMK A01 T00450019  RH  083%=      5-min Rain = 0
KJU1 170436Z 18002KT 05/02 A3007 RMK A01 T00450020  RH  084%=      5-min Rain = 0
KJU1 170437Z 17002KT 05/02 A3007 RMK A01 T00460021  RH  084%=      5-min Rain = 0
KJU1 170438Z 16003KT 05/02 A3007 RMK A01 T00460021  RH  083%=      5-min Rain = 0
KJU1 170439Z 17003KT 05/02 A3007 RMK A01 T00460020  RH  083%=      5-min Rain = 0
KJU1 170440Z 17003KT 05/02 A3007 RMK A01 T00460020  RH  083%=      5-min Rain = 0
KJU1 170441Z 17003KT 05/02 A3007 RMK A01 T00460019  RH  083%=      5-min Rain = 0
KJU1 170442Z 17003KT 05/02 A3007 RMK A01 T00450019  RH  083%=      5-min Rain = 0
KJU1 170443Z 18003KT 05/02 A3007 RMK A01 T00450019  RH  083%=      5-min Rain = 0
KJU1 170444Z 18003KT 05/02 A3007 RMK A01 T00460020  RH  083%=      5-min Rain = 0
KJU1 170445Z 18003KT 05/02 A3006 RMK A01 T00460021  RH  084%=      5-min Rain = 0
KJU1 170446Z 18003KT 05/02 A3006 RMK A01 T00470021  RH  083%=      5-min Rain = 0
KJU1 170447Z 17003KT 05/02 A3006 RMK A01 T00470021  RH  083%=      5-min Rain = 0
KJU1 170448Z 18003KT 05/02 A3006 RMK A01 T00470020  RH  083%=      5-min Rain = 0
KJU1 170449Z 18002KT 05/02 A3006 RMK A01 T00460019  RH  083%=      5-min Rain = 0
KJU1 170450Z 19002KT 05/02 A3006 RMK A01 T00460019  RH  083%=      5-min Rain = 0
KJU1 170451Z 19002KT 05/02 A3006 RMK A01 T00450018  RH  083%=      5-min Rain = 0
KJU1 170452Z 19002KT 05/02 A3006 RMK A01 T00450019  RH  083%=      5-min Rain = 0
KJU1 170453Z 20002KT 05/02 A3006 RMK A01 T00450019  RH  083%=      5-min Rain = 0
KJU1 170454Z 19002KT 04/02 A3006 RMK A01 T00440019  RH  083%=      5-min Rain = 0
KJU1 170455Z 18002KT 04/02 A3006 RMK A01 T00440019  RH  084%=      5-min Rain = 0
KJU1 170456Z 17002KT 04/02 A3006 RMK A01 T00440018  RH  084%=      5-min Rain = 0
KJU1 170457Z 17003KT 04/02 A3006 RMK A01 T00430019  RH  084%=      5-min Rain = 0
KJU1 170458Z 18003KT 04/02 A3006 RMK A01 T00440019  RH  084%=      5-min Rain = 0
KJU1 170459Z 18002KT 04/02 A3007 RMK A01 T00440020  RH  085%=      5-min Rain = 0
KJU1 170500Z 15002KT 04/02 A3007 RMK A01 T00440020  RH  084%=      5-min Rain = 0
KJU1 170501Z 17003KT 04/02 A3007 RMK A01 T00440020  RH  084%=      5-min Rain = 0
KJU1 170502Z 16003KT 04/02 A3007 RMK A01 T00440019  RH  084%=      5-min Rain = 0
KJU1 170503Z 17003KT 04/02 A3007 RMK A01 T00430019  RH  084%=      5-min Rain = 0
KJU1 170504Z 17003KT 04/02 A3007 RMK A01 T00430020  RH  085%=      5-min Rain = 0
KJU1 170505Z 15003KT 05/02 A3006 RMK A01 T00450024  RH  086%=      5-min Rain = 0
KJU1 170506Z 15003KT 05/03 A3006 RMK A01 T00470025  RH  086%=      5-min Rain = 0
KJU1 170507Z 16003KT 05/03 A3006 RMK A01 T00480025  RH  085%=      5-min Rain = 0
KJU1 170508Z 17003KT 05/03 A3006 RMK A01 T00500026  RH  085%=      5-min Rain = 0
KJU1 170509Z 16003KT 05/03 A3006 RMK A01 T00510025  RH  083%=      5-min Rain = 0
KJU1 170510Z 17003KT 05/02 A3006 RMK A01 T00510023  RH  083%=      5-min Rain = 0
KJU1 170511Z 17003KT 05/02 A3006 RMK A01 T00500022  RH  082%=      5-min Rain = 0
KJU1 170512Z 16002KT 05/02 A3006 RMK A01 T00490021  RH  082%=      5-min Rain = 0
KJU1 170513Z 17002KT 05/02 A3006 RMK A01 T00490022  RH  083%=      5-min Rain = 0
KJU1 170514Z 16002KT 05/02 A3006 RMK A01 T00490022  RH  083%=      5-min Rain = 0
KJU1 170515Z 18002KT 05/02 A3006 RMK A01 T00490023  RH  083%=      5-min Rain = 0
KJU1 170516Z 18002KT 05/02 A3006 RMK A01 T00500024  RH  084%=      5-min Rain = 0
KJU1 170517Z 16002KT 05/02 A3006 RMK A01 T00490024  RH  084%=      5-min Rain = 0
KJU1 170518Z 15003KT 05/03 A3006 RMK A01 T00500025  RH  084%=      5-min Rain = 0
KJU1 170519Z 16003KT 05/02 A3006 RMK A01 T00490024  RH  084%=      5-min Rain = 0
KJU1 170520Z 16003KT 05/02 A3006 RMK A01 T00490023  RH  084%=      5-min Rain = 0
KJU1 170521Z 16003KT 05/02 A3006 RMK A01 T00480022  RH  083%=      5-min Rain = 0
KJU1 170522Z 17003KT 05/02 A3006 RMK A01 T00470021  RH  083%=      5-min Rain = 0
KJU1 170523Z 16002KT 05/02 A3006 RMK A01 T00470022  RH  083%=      5-min Rain = 0
KJU1 170524Z 16002KT 05/02 A3006 RMK A01 T00470020  RH  083%=      5-min Rain = 0
KJU1 170525Z 17002KT 05/02 A3005 RMK A01 T00450019  RH  083%=      5-min Rain = 0
KJU1 170526Z 17001KT 05/02 A3005 RMK A01 T00450020  RH  084%=      5-min Rain = 0
KJU1 170527Z 17001KT 05/02 A3005 RMK A01 T00470023  RH  084%=      5-min Rain = 0
KJU1 170528Z 18000KT 05/02 A3005 RMK A01 T00480024  RH  084%=      5-min Rain = 0
KJU1 170529Z 19000KT 05/03 A3005 RMK A01 T00490026  RH  085%=      5-min Rain = 0
KJU1 170530Z 00000KT 05/03 A3005 RMK A01 T00500027  RH  085%=      5-min Rain = 0
KJU1 170531Z 00000KT 05/03 A3005 RMK A01 T00510028  RH  085%=      5-min Rain = 0
KJU1 170532Z 00000KT 05/03 A3005 RMK A01 T00510029  RH  086%=      5-min Rain = 0
KJU1 170533Z 00000KT 05/03 A3005 RMK A01 T00510030  RH  086%=      5-min Rain = 0
KJU1 170534Z 00000KT 05/03 A3006 RMK A01 T00520030  RH  086%=      5-min Rain = 0
KJU1 170535Z 00000KT 05/03 A3006 RMK A01 T00510028  RH  085%=      5-min Rain = 0
KJU1 170536Z 00000KT 05/03 A3006 RMK A01 T00490026  RH  085%=      5-min Rain = 0
KJU1 170537Z 03001KT 05/03 A3005 RMK A01 T00480025  RH  085%=      5-min Rain = 0
KJU1 170538Z 02001KT 05/02 A3005 RMK A01 T00460024  RH  086%=      5-min Rain = 0
KJU1 170539Z 04001KT 05/03 A3005 RMK A01 T00460025  RH  086%=      5-min Rain = 0
KJU1 170540Z 04002KT 05/03 A3005 RMK A01 T00460025  RH  086%=      5-min Rain = 0
KJU1 170541Z 03002KT 05/02 A3006 RMK A01 T00450024  RH  086%=      5-min Rain = 0
KJU1 170542Z 03002KT 05/02 A3005 RMK A01 T00450024  RH  086%=      5-min Rain = 0
KJU1 170543Z 04002KT 05/03 A3006 RMK A01 T00450025  RH  087%=      5-min Rain = 0
KJU1 170544Z 04001KT 05/03 A3005 RMK A01 T00450025  RH  087%=      5-min Rain = 0
KJU1 170545Z 04001KT 05/03 A3005 RMK A01 T00450025  RH  087%=      5-min Rain = 0
KJU1 170546Z 04001KT 05/03 A3005 RMK A01 T00450025  RH  087%=      5-min Rain = 0
KJU1 170547Z 06002KT 05/03 A3005 RMK A01 T00450025  RH  087%=      5-min Rain = 0
KJU1 170548Z 06001KT 04/03 A3005 RMK A01 T00440025  RH  087%=      5-min Rain = 0
KJU1 170549Z 14001KT 04/02 A3005 RMK A01 T00440024  RH  087%=      5-min Rain = 0
KJU1 170550Z 14002KT 04/03 A3005 RMK A01 T00440025  RH  087%=      5-min Rain = 0
KJU1 170551Z 15002KT 05/03 A3005 RMK A01 T00460027  RH  088%=      5-min Rain = 0
KJU1 170552Z 15003KT 05/03 A3005 RMK A01 T00460026  RH  087%=      5-min Rain = 0
KJU1 170553Z 15003KT 04/02 A3005 RMK A01 T00440023  RH  086%=      5-min Rain = 0
KJU1 170554Z 17003KT 04/02 A3005 RMK A01 T00430022  RH  086%=      5-min Rain = 0
KJU1 170555Z 18003KT 04/02 A3005 RMK A01 T00430023  RH  087%=      5-min Rain = 0
KJU1 170556Z 19002KT 04/02 A3005 RMK A01 T00430023  RH  087%=      5-min Rain = 0
KJU1 170557Z 19002KT 04/02 A3004 RMK A01 T00430023  RH  087%=      5-min Rain = 0
KJU1 170558Z 18002KT 04/02 A3004 RMK A01 T00420022  RH  087%=      5-min Rain = 0
KJU1 170559Z 17002KT 04/02 A3004 RMK A01 T00420022  RH  087%=      5-min Rain = 0

Page generated in 0.1211 seconds.